GFSNE_prec_precacc_222.txt.gz
Total_Precipitation_Accumulation
1.93 2.16 2.15 1.77 1.51 1.20 1.19 1.32 1.68 1.28 0.53 0.28 0.42 0.52 0.61 0.70 0.56 0.66 0.70 0.66 0.64 0.57 0.53 0.51 0.55 0.60 0.73 1.03 1.37 1.58 1.69 1.98 2.04 1.73 1.98 2.51 2.64 2.53
1.76 1.91 1.99 2.03 1.97 1.93 1.94 1.77 1.95 2.09 1.63 0.54 0.46 0.38 0.42 0.49 0.60 0.80 0.76 0.78 0.81 0.85 0.93 0.79 0.54 0.52 0.52 0.53 0.60 0.73 0.88 0.92 1.23 1.29 1.22 1.26 1.82 2.36
2.16 2.12 2.10 2.03 2.29 2.26 2.10 2.03 1.86 1.94 1.82 1.05 0.98 0.93 0.84 0.70 0.69 0.81 0.87 0.88 0.90 0.96 1.04 1.20 1.14 0.98 0.85 0.81 0.70 0.59 0.58 0.68 0.78 0.78 0.75 0.75 0.74 1.17
2.36 2.71 3.02 2.93 2.75 2.49 2.50 2.81 2.61 2.32 2.56 2.40 2.17 2.06 1.69 1.37 1.30 1.25 1.10 0.92 0.84 0.99 0.95 1.16 1.36 1.20 1.19 1.31 1.34 1.34 1.08 0.96 0.91 0.86 0.75 0.63 0.63 0.64
3.04 2.97 2.93 3.08 3.12 2.92 2.68 2.40 2.38 2.52 2.49 2.50 2.35 2.24 2.43 2.13 2.11 2.20 2.10 1.70 1.55 1.34 1.02 0.98 1.15 1.34 1.33 1.35 1.32 1.30 1.27 1.13 1.16 1.35 1.54 1.46 1.04 0.88
2.20 2.47 2.51 2.56 2.80 2.90 3.02 2.99 2.63 2.35 2.17 2.29 2.38 2.41 2.47 2.62 2.41 2.46 2.93 2.56 1.94 1.48 1.36 1.39 1.43 1.25 1.25 1.22 1.32 1.30 1.17 1.18 1.13 1.07 1.11 1.50 1.91 1.75
2.38 2.25 2.58 2.94 2.95 2.85 3.08 3.17 3.23 3.21 3.27 3.23 3.16 3.23 2.92 2.25 2.24 2.26 2.55 2.59 2.60 2.24 1.88 1.66 1.61 1.72 1.68 1.58 1.45 1.39 1.34 1.33 1.25 1.17 1.20 1.31 1.69 2.08
3.02 2.71 2.63 3.16 3.09 3.32 3.42 3.27 3.31 3.64 3.63 3.46 3.52 3.36 2.96 2.80 2.53 2.73 2.97 3.09 2.99 2.47 2.37 2.13 1.79 1.72 1.78 1.84 2.10 1.85 1.62 1.62 1.63 1.48 1.30 1.24 1.35 1.64
2.76 2.86 2.65 2.57 2.61 2.17 2.93 3.03 2.87 3.04 3.19 3.03 3.01 2.99 3.01 3.01 3.02 3.07 3.11 3.25 3.23 2.94 2.85 3.17 2.87 2.65 2.25 2.09 2.34 1.75 1.71 1.76 1.65 1.55 1.49 1.40 1.33 1.37
1.63 1.57 1.50 1.53 1.99 1.98 1.90 2.24 2.43 2.79 3.10 3.24 3.40 3.63 3.71 3.53 3.55 3.50 3.23 3.20 3.39 3.06 3.07 3.53 3.15 3.21 2.99 2.58 2.88 2.05 1.80 1.87 2.06 1.99 1.76 1.65 1.50 1.54
1.38 1.46 1.54 1.31 2.14 2.03 1.51 1.58 1.79 1.98 2.62 2.73 2.66 2.87 2.93 2.67 2.55 2.79 3.44 3.81 3.63 2.99 2.60 2.71 2.65 2.98 2.95 2.72 2.68 2.72 2.22 2.11 2.05 2.13 2.24 2.14 1.87 1.77
1.56 1.62 2.38 1.83 2.37 1.97 1.66 1.59 1.86 1.98 1.96 2.04 2.09 2.07 1.98 1.96 2.13 1.80 2.03 2.80 3.36 3.35 2.82 2.84 2.67 2.73 3.10 2.82 2.42 2.24 2.11 2.20 2.27 2.25 2.10 2.11 2.01 1.56
1.95 1.92 2.05 2.61 2.01 1.95 1.97 1.86 2.57 2.59 2.74 2.29 2.15 2.14 1.92 1.73 1.62 1.67 1.72 2.20 2.62 2.53 2.38 2.82 2.60 2.45 2.65 2.38 1.99 1.73 1.64 1.80 1.86 1.97 2.10 2.08 1.92 1.84
2.23 2.31 2.66 2.80 2.17 2.05 2.13 2.65 2.95 2.53 2.10 2.05 2.04 2.06 2.04 2.02 2.00 1.91 1.93 1.96 1.98 2.08 2.03 2.18 2.19 1.85 1.83 1.74 1.49 1.33 1.27 1.21 1.20 1.34 1.59 1.81 1.89 1.84
2.07 2.35 2.40 2.21 1.97 2.01 2.26 2.41 2.37 2.44 2.69 2.84 2.87 2.77 2.51 2.25 2.04 1.95 1.79 1.73 1.70 1.73 1.74 1.74 1.75 1.69 1.75 1.68 1.44 1.23 1.23 1.12 0.94 0.94 1.24 1.26 1.35 1.38
2.07 2.17 2.19 2.20 2.12 2.17 2.23 2.24 2.24 2.37 2.43 2.54 2.50 2.45 2.31 2.13 2.01 1.88 1.79 1.72 1.75 1.75 1.59 1.53 1.49 1.57 1.62 1.48 1.36 1.26 1.07 1.06 0.98 0.93 1.12 1.42 1.52 1.60
2.00 2.23 2.36 2.31 2.14 2.00 1.92 1.88 1.91 1.90 1.90 1.84 1.75 1.69 1.65 1.56 1.44 1.31 1.32 1.25 1.27 1.09 1.12 1.23 1.17 1.12 1.12 1.21 1.29 1.09 1.03 1.00 1.02 1.21 1.06 1.30 1.49 1.51
1.78 1.80 1.79 1.71 1.60 1.52 1.42 1.35 1.30 1.20 1.09 0.98 0.95 0.90 0.88 0.84 0.77 0.72 0.76 0.76 0.72 0.62 0.62 0.66 0.92 0.90 0.87 0.80 0.81 0.91 0.79 0.73 0.76 0.76 0.79 1.13 1.26 1.62
1.32 1.25 1.18 1.10 0.96 0.84 0.75 0.72 0.82 0.76 0.63 0.64 0.59 0.52 0.46 0.43 0.43 0.41 0.37 0.38 0.41 0.35 0.29 0.38 0.53 0.70 0.78 0.68 0.63 0.48 0.68 0.58 0.59 0.59 0.58 0.73 1.06 1.15
0.82 0.69 0.65 0.57 0.53 0.50 0.43 0.42 0.51 0.53 0.50 0.39 0.34 0.34 0.36 0.38 0.40 0.34 0.30 0.31 0.30 0.32 0.30 0.19 0.22 0.30 0.58 0.79 0.79 0.35 0.36 0.78 0.57 0.50 0.49 0.51 0.58 0.78
0.52 0.48 0.45 0.45 0.48 0.46 0.44 0.43 0.52 0.54 0.52 0.53 0.47 0.51 0.53 0.55 0.51 0.44 0.42 0.37 0.40 0.36 0.27 0.13 0.10 0.16 0.34 0.57 0.72 0.38 0.27 0.37 0.34 0.42 0.46 0.53 0.52 0.46
0.45 0.43 0.42 0.42 0.43 0.42 0.43 0.45 0.47 0.50 0.53 0.51 0.41 0.40 0.40 0.40 0.41 0.34 0.34 0.36 0.30 0.27 0.19 0.16 0.20 0.28 0.37 0.36 0.47 0.37 0.29 0.36 0.27 0.20 0.27 0.47 0.66 0.80
0.39 0.37 0.35 0.37 0.36 0.36 0.36 0.38 0.35 0.35 0.37 0.44 0.36 0.37 0.45 0.44 0.37 0.38 0.35 0.31 0.30 0.31 0.32 0.34 0.25 0.25 0.26 0.24 0.37 0.42 0.30 0.35 0.35 0.36 0.38 0.33 0.32 0.29

GFSNE_prec_precacc_225.txt.gz
Total_Precipitation_Accumulation
1.93 2.17 2.15 1.78 1.52 1.21 1.19 1.32 1.68 1.28 0.53 0.28 0.42 0.52 0.61 0.70 0.56 0.66 0.70 0.66 0.64 0.57 0.53 0.51 0.55 0.60 0.73 1.03 1.37 1.58 1.69 1.98 2.04 1.73 1.98 2.51 2.64 2.53
1.76 1.91 1.99 2.03 1.97 1.94 1.94 1.77 1.95 2.09 1.63 0.55 0.46 0.38 0.43 0.49 0.60 0.80 0.76 0.78 0.83 0.90 0.97 0.83 0.59 0.55 0.52 0.53 0.60 0.74 0.88 0.92 1.23 1.29 1.22 1.26 1.82 2.36
2.17 2.13 2.11 2.04 2.29 2.26 2.10 2.03 1.86 1.94 1.82 1.05 0.98 0.93 0.85 0.71 0.72 0.86 0.92 0.93 0.97 1.10 1.26 1.43 1.31 1.06 0.88 0.82 0.71 0.59 0.58 0.68 0.78 0.78 0.75 0.75 0.74 1.17
2.37 2.72 3.03 2.93 2.75 2.50 2.51 2.81 2.61 2.32 2.56 2.41 2.17 2.07 1.72 1.43 1.37 1.31 1.17 1.09 1.10 1.33 1.28 1.40 1.51 1.29 1.24 1.33 1.35 1.34 1.08 0.96 0.91 0.86 0.75 0.63 0.63 0.64
3.06 2.98 2.94 3.09 3.13 2.93 2.69 2.41 2.39 2.53 2.49 2.51 2.36 2.26 2.45 2.16 2.15 2.29 2.26 1.93 1.88 1.69 1.30 1.18 1.28 1.43 1.39 1.39 1.35 1.34 1.30 1.14 1.16 1.35 1.54 1.46 1.04 0.88
2.21 2.48 2.52 2.57 2.82 2.93 3.05 3.02 2.66 2.38 2.20 2.33 2.41 2.43 2.51 2.70 2.58 2.71 3.22 2.82 2.11 1.63 1.52 1.53 1.55 1.36 1.36 1.30 1.38 1.35 1.22 1.21 1.14 1.08 1.11 1.51 1.91 1.75
2.40 2.26 2.60 2.97 2.99 2.89 3.11 3.20 3.27 3.26 3.37 3.37 3.27 3.33 3.14 2.55 2.56 2.52 2.74 2.72 2.68 2.31 1.98 1.84 1.81 1.90 1.83 1.70 1.54 1.44 1.41 1.39 1.29 1.19 1.21 1.31 1.69 2.08
3.17 2.82 2.66 3.20 3.12 3.37 3.48 3.33 3.38 3.71 3.75 3.63 3.66 3.46 3.07 2.90 2.61 2.79 3.01 3.15 3.06 2.54 2.45 2.29 1.99 1.94 1.98 2.00 2.22 1.94 1.70 1.69 1.66 1.49 1.31 1.24 1.35 1.64
2.80 2.92 2.72 2.66 2.73 2.26 3.02 3.16 2.96 3.12 3.29 3.14 3.09 3.03 3.04 3.04 3.05 3.11 3.16 3.28 3.25 2.97 2.94 3.42 3.15 2.92 2.48 2.26 2.51 1.89 1.82 1.84 1.69 1.57 1.50 1.41 1.34 1.38
1.95 1.89 1.71 1.71 2.23 2.26 2.17 2.54 2.69 2.91 3.19 3.37 3.45 3.65 3.73 3.55 3.58 3.53 3.28 3.27 3.50 3.17 3.21 3.76 3.41 3.45 3.18 2.76 3.07 2.24 1.94 1.98 2.13 2.02 1.78 1.66 1.50 1.54
1.52 1.59 1.74 1.46 2.28 2.26 1.73 1.73 1.95 2.09 2.73 2.86 2.71 2.91 2.99 2.73 2.63 2.87 3.53 3.89 3.74 3.11 2.71 2.82 2.79 3.17 3.15 2.93 2.89 2.93 2.38 2.23 2.14 2.17 2.26 2.15 1.88 1.77
1.60 1.68 2.48 1.87 2.42 2.04 1.74 1.64 1.89 2.01 1.99 2.11 2.16 2.15 2.04 2.02 2.21 1.84 2.06 2.83 3.44 3.48 2.93 2.95 2.81 2.95 3.41 3.07 2.61 2.44 2.27 2.32 2.34 2.29 2.11 2.12 2.02 1.56
1.95 1.92 2.06 2.65 2.04 2.01 2.04 1.89 2.60 2.64 2.84 2.38 2.22 2.22 1.99 1.79 1.68 1.70 1.74 2.23 2.69 2.60 2.44 2.95 2.80 2.68 2.87 2.51 2.14 1.93 1.79 1.90 1.93 2.02 2.12 2.09 1.93 1.84
2.23 2.31 2.67 2.84 2.20 2.08 2.16 2.66 2.97 2.59 2.16 2.12 2.12 2.14 2.11 2.08 2.05 1.95 1.98 2.05 2.07 2.19 2.14 2.34 2.33 1.95 1.93 1.84 1.61 1.46 1.39 1.30 1.26 1.39 1.61 1.82 1.90 1.84
2.07 2.37 2.42 2.23 1.99 2.01 2.27 2.42 2.39 2.46 2.70 2.86 2.90 2.81 2.55 2.31 2.12 2.03 1.90 1.85 1.81 1.84 1.86 1.82 1.81 1.78 1.83 1.73 1.50 1.31 1.34 1.21 0.98 0.97 1.25 1.27 1.35 1.38
2.08 2.19 2.20 2.21 2.13 2.18 2.24 2.25 2.25 2.39 2.47 2.58 2.54 2.50 2.38 2.22 2.09 1.95 1.85 1.81 1.86 1.86 1.69 1.60 1.56 1.64 1.68 1.51 1.40 1.32 1.12 1.09 1.00 0.94 1.12 1.42 1.52 1.60
2.00 2.23 2.36 2.31 2.14 2.00 1.92 1.89 1.93 1.94 1.96 1.90 1.82 1.76 1.73 1.64 1.50 1.36 1.36 1.29 1.31 1.14 1.19 1.29 1.22 1.16 1.15 1.23 1.31 1.11 1.04 1.00 1.02 1.21 1.07 1.31 1.49 1.51
1.78 1.80 1.79 1.71 1.60 1.52 1.42 1.36 1.32 1.23 1.12 1.01 0.98 0.94 0.92 0.87 0.80 0.76 0.80 0.80 0.75 0.65 0.64 0.68 0.95 0.96 0.94 0.84 0.81 0.91 0.79 0.73 0.76 0.76 0.80 1.14 1.27 1.62
1.32 1.26 1.18 1.10 0.96 0.84 0.76 0.73 0.83 0.77 0.64 0.65 0.61 0.54 0.48 0.46 0.47 0.44 0.41 0.43 0.44 0.38 0.32 0.40 0.55 0.72 0.79 0.69 0.63 0.48 0.68 0.58 0.59 0.59 0.58 0.74 1.06 1.16
0.85 0.72 0.66 0.57 0.53 0.50 0.44 0.43 0.52 0.55 0.52 0.41 0.37 0.37 0.39 0.40 0.42 0.37 0.32 0.32 0.31 0.33 0.32 0.21 0.23 0.31 0.58 0.79 0.79 0.35 0.36 0.78 0.57 0.50 0.50 0.52 0.60 0.80
0.53 0.49 0.45 0.45 0.48 0.47 0.45 0.44 0.53 0.54 0.53 0.54 0.47 0.52 0.54 0.56 0.52 0.45 0.42 0.38 0.41 0.37 0.28 0.13 0.10 0.16 0.35 0.58 0.75 0.39 0.28 0.38 0.34 0.42 0.46 0.56 0.56 0.49
0.45 0.43 0.43 0.42 0.43 0.42 0.43 0.45 0.47 0.50 0.53 0.51 0.41 0.40 0.40 0.40 0.41 0.35 0.34 0.37 0.31 0.27 0.19 0.16 0.20 0.29 0.38 0.37 0.48 0.37 0.29 0.38 0.30 0.20 0.27 0.49 0.69 0.81
0.39 0.37 0.35 0.37 0.36 0.36 0.36 0.38 0.35 0.35 0.37 0.44 0.36 0.37 0.45 0.44 0.38 0.38 0.35 0.32 0.31 0.33 0.35 0.36 0.26 0.26 0.27 0.24 0.37 0.43 0.30 0.36 0.40 0.41 0.44 0.38 0.33 0.29

GFSNE_prec_precacc_228.txt.gz
Total_Precipitation_Accumulation
1.94 2.17 2.15 1.78 1.52 1.21 1.19 1.32 1.68 1.28 0.53 0.28 0.42 0.52 0.61 0.70 0.56 0.66 0.70 0.66 0.64 0.57 0.53 0.51 0.55 0.61 0.74 1.05 1.39 1.60 1.71 2.00 2.05 1.74 1.98 2.51 2.64 2.53
1.77 1.91 1.99 2.03 1.97 1.94 1.94 1.77 1.95 2.09 1.63 0.55 0.46 0.38 0.43 0.49 0.60 0.80 0.78 0.79 0.84 0.91 0.98 0.84 0.63 0.67 0.66 0.62 0.66 0.76 0.90 0.94 1.25 1.31 1.22 1.27 1.82 2.37
2.18 2.13 2.12 2.04 2.29 2.26 2.10 2.03 1.86 1.94 1.82 1.05 0.98 0.93 0.85 0.71 0.72 0.86 0.92 0.94 0.98 1.13 1.36 1.64 1.55 1.25 0.97 0.86 0.75 0.62 0.61 0.69 0.79 0.79 0.76 0.76 0.74 1.18
2.39 2.73 3.04 2.94 2.76 2.50 2.51 2.81 2.61 2.32 2.56 2.41 2.17 2.07 1.72 1.43 1.37 1.31 1.17 1.11 1.15 1.41 1.43 1.53 1.62 1.35 1.27 1.36 1.37 1.36 1.09 0.97 0.92 0.86 0.76 0.64 0.64 0.65
3.08 3.00 2.96 3.12 3.15 2.95 2.70 2.41 2.39 2.53 2.50 2.51 2.36 2.26 2.45 2.16 2.16 2.29 2.27 1.94 1.91 1.80 1.47 1.31 1.36 1.45 1.41 1.42 1.37 1.35 1.32 1.17 1.19 1.38 1.58 1.49 1.06 0.89
2.22 2.49 2.53 2.58 2.83 2.95 3.06 3.03 2.66 2.39 2.20 2.33 2.42 2.44 2.51 2.70 2.58 2.72 3.23 2.89 2.27 1.82 1.68 1.63 1.61 1.41 1.41 1.36 1.43 1.38 1.25 1.25 1.18 1.12 1.17 1.55 1.95 1.78
2.48 2.29 2.61 3.00 3.04 2.93 3.14 3.22 3.28 3.29 3.39 3.40 3.30 3.36 3.17 2.57 2.59 2.58 2.84 2.87 2.81 2.37 2.01 1.88 1.89 2.02 1.96 1.81 1.62 1.51 1.44 1.42 1.32 1.24 1.27 1.38 1.75 2.13
4.00 3.51 3.27 3.64 3.31 3.45 3.53 3.37 3.42 3.76 3.82 3.69 3.73 3.55 3.15 2.98 2.71 2.94 3.14 3.27 3.12 2.58 2.51 2.39 2.09 2.06 2.08 2.10 2.34 2.06 1.80 1.76 1.71 1.53 1.35 1.28 1.39 1.68
3.00 3.13 2.97 3.07 3.21 2.58 3.23 3.32 3.10 3.26 3.52 3.54 3.46 3.33 3.36 3.31 3.31 3.39 3.31 3.32 3.26 3.00 3.00 3.52 3.23 3.00 2.58 2.37 2.67 2.03 1.94 1.95 1.77 1.61 1.54 1.45 1.39 1.43
2.09 2.10 1.95 1.92 2.53 2.64 2.54 2.96 3.13 3.39 3.62 3.84 3.81 3.90 3.92 3.66 3.67 3.60 3.34 3.34 3.56 3.22 3.25 3.81 3.45 3.54 3.28 2.85 3.22 2.39 2.10 2.11 2.25 2.10 1.84 1.72 1.57 1.62
1.58 1.72 1.88 1.58 2.39 2.38 2.00 2.21 2.50 2.65 3.16 3.23 2.99 3.04 3.07 2.82 2.74 3.03 3.68 3.95 3.80 3.19 2.76 2.86 2.84 3.25 3.26 3.04 3.03 3.12 2.56 2.39 2.29 2.28 2.34 2.22 1.95 1.85
1.60 1.71 2.53 1.89 2.45 2.09 1.81 1.70 1.96 2.08 2.09 2.25 2.30 2.24 2.09 2.05 2.27 1.90 2.13 2.89 3.51 3.54 2.98 2.98 2.85 3.01 3.56 3.24 2.76 2.61 2.46 2.50 2.53 2.45 2.23 2.22 2.11 1.66
1.95 1.92 2.07 2.68 2.06 2.02 2.06 1.91 2.62 2.66 2.86 2.41 2.26 2.27 2.05 1.82 1.70 1.73 1.76 2.26 2.73 2.63 2.47 3.00 2.87 2.75 2.98 2.59 2.23 2.06 1.94 2.05 2.11 2.20 2.26 2.20 2.03 1.93
2.23 2.31 2.70 2.90 2.24 2.14 2.21 2.70 3.00 2.61 2.17 2.12 2.13 2.16 2.12 2.11 2.09 1.99 2.02 2.11 2.10 2.21 2.18 2.39 2.37 1.99 1.99 1.90 1.67 1.57 1.53 1.43 1.39 1.51 1.73 1.92 2.00 1.92
2.08 2.38 2.44 2.26 2.01 2.04 2.31 2.46 2.42 2.48 2.71 2.86 2.90 2.82 2.56 2.32 2.16 2.09 1.97 1.91 1.84 1.87 1.90 1.86 1.84 1.81 1.88 1.76 1.52 1.38 1.48 1.36 1.10 1.08 1.38 1.38 1.43 1.46
2.09 2.19 2.21 2.22 2.14 2.20 2.27 2.26 2.26 2.40 2.47 2.58 2.54 2.51 2.39 2.24 2.13 2.00 1.91 1.86 1.91 1.94 1.77 1.68 1.62 1.71 1.76 1.58 1.46 1.42 1.23 1.19 1.09 1.02 1.19 1.48 1.56 1.63
2.01 2.23 2.36 2.31 2.15 2.00 1.93 1.89 1.93 1.94 1.96 1.90 1.82 1.77 1.75 1.67 1.55 1.41 1.42 1.36 1.38 1.20 1.27 1.37 1.29 1.23 1.18 1.25 1.37 1.15 1.08 1.03 1.05 1.25 1.12 1.34 1.51 1.52
1.79 1.80 1.79 1.71 1.60 1.52 1.43 1.37 1.32 1.24 1.12 1.01 0.99 0.94 0.92 0.89 0.83 0.80 0.84 0.84 0.79 0.71 0.69 0.74 1.01 1.03 0.99 0.87 0.82 0.93 0.81 0.75 0.78 0.79 0.82 1.17 1.28 1.63
1.33 1.26 1.18 1.10 0.97 0.84 0.76 0.73 0.83 0.77 0.64 0.65 0.61 0.54 0.48 0.47 0.49 0.46 0.44 0.46 0.48 0.42 0.34 0.42 0.58 0.74 0.80 0.69 0.63 0.48 0.69 0.60 0.61 0.62 0.60 0.75 1.06 1.16
0.86 0.73 0.66 0.57 0.53 0.51 0.44 0.43 0.52 0.55 0.52 0.41 0.37 0.37 0.39 0.41 0.43 0.38 0.33 0.33 0.32 0.35 0.34 0.24 0.26 0.32 0.58 0.79 0.79 0.35 0.36 0.79 0.58 0.51 0.51 0.54 0.61 0.80
0.55 0.51 0.47 0.45 0.48 0.47 0.45 0.44 0.53 0.54 0.53 0.54 0.47 0.52 0.55 0.57 0.52 0.46 0.43 0.39 0.42 0.38 0.28 0.14 0.10 0.17 0.36 0.59 0.76 0.40 0.28 0.38 0.34 0.42 0.47 0.59 0.59 0.51
0.47 0.45 0.43 0.42 0.43 0.42 0.43 0.45 0.47 0.50 0.53 0.52 0.41 0.40 0.41 0.40 0.41 0.35 0.35 0.38 0.32 0.28 0.20 0.17 0.22 0.32 0.42 0.38 0.48 0.37 0.29 0.39 0.31 0.21 0.27 0.50 0.71 0.82
0.40 0.37 0.35 0.37 0.36 0.36 0.36 0.38 0.35 0.35 0.37 0.44 0.36 0.37 0.45 0.44 0.38 0.38 0.36 0.33 0.33 0.34 0.36 0.39 0.30 0.29 0.29 0.26 0.40 0.45 0.31 0.37 0.44 0.45 0.48 0.41 0.34 0.29

GFSNE_prec_precacc_231.txt.gz
Total_Precipitation_Accumulation
1.95 2.17 2.15 1.78 1.52 1.21 1.19 1.32 1.68 1.28 0.53 0.28 0.42 0.52 0.61 0.70 0.56 0.66 0.70 0.66 0.64 0.57 0.53 0.51 0.55 0.61 0.74 1.06 1.40 1.62 1.72 2.00 2.05 1.74 1.99 2.52 2.65 2.54
1.78 1.92 2.00 2.03 1.97 1.94 1.94 1.77 1.95 2.09 1.63 0.55 0.46 0.38 0.43 0.49 0.60 0.80 0.78 0.79 0.85 0.92 0.98 0.84 0.63 0.69 0.70 0.67 0.68 0.77 0.90 0.94 1.25 1.31 1.23 1.27 1.83 2.37
2.18 2.14 2.12 2.04 2.29 2.26 2.10 2.03 1.86 1.94 1.82 1.05 0.98 0.93 0.85 0.71 0.72 0.86 0.92 0.94 0.99 1.14 1.36 1.65 1.58 1.28 1.00 0.89 0.75 0.62 0.61 0.70 0.79 0.79 0.77 0.76 0.75 1.19
2.43 2.75 3.05 2.95 2.77 2.50 2.51 2.81 2.61 2.32 2.56 2.41 2.17 2.07 1.72 1.43 1.37 1.31 1.17 1.11 1.15 1.41 1.43 1.53 1.62 1.39 1.32 1.38 1.38 1.36 1.09 0.97 0.92 0.86 0.76 0.64 0.65 0.66
3.15 3.05 2.99 3.14 3.17 2.97 2.70 2.42 2.40 2.53 2.50 2.51 2.36 2.26 2.45 2.16 2.16 2.30 2.27 1.94 1.91 1.81 1.50 1.34 1.41 1.53 1.47 1.46 1.41 1.37 1.33 1.17 1.19 1.38 1.58 1.49 1.07 0.90
2.39 2.56 2.59 2.63 2.86 2.97 3.09 3.04 2.67 2.40 2.21 2.34 2.42 2.45 2.51 2.70 2.58 2.72 3.24 2.89 2.28 1.83 1.72 1.74 1.72 1.50 1.47 1.41 1.47 1.41 1.26 1.26 1.19 1.13 1.17 1.56 1.96 1.79
2.73 2.43 2.67 3.02 3.08 2.98 3.20 3.27 3.31 3.31 3.42 3.42 3.32 3.38 3.18 2.58 2.60 2.58 2.84 2.89 2.85 2.42 2.09 2.02 2.07 2.20 2.09 1.90 1.68 1.55 1.47 1.44 1.34 1.24 1.27 1.38 1.75 2.13
4.17 3.66 3.50 3.91 3.67 3.78 3.76 3.52 3.54 3.85 3.92 3.78 3.79 3.59 3.18 3.01 2.76 3.01 3.30 3.57 3.49 2.89 2.79 2.66 2.35 2.26 2.17 2.14 2.41 2.14 1.88 1.82 1.73 1.54 1.36 1.28 1.39 1.69
3.18 3.27 3.08 3.18 3.34 2.82 3.56 3.59 3.29 3.43 3.65 3.69 3.63 3.57 3.59 3.57 3.67 3.87 3.79 3.71 3.52 3.15 3.16 3.69 3.34 3.11 2.64 2.43 2.81 2.13 2.04 2.06 1.84 1.64 1.56 1.46 1.39 1.44
2.11 2.15 2.04 1.99 2.60 2.75 2.80 3.27 3.37 3.60 3.85 4.12 4.06 4.07 4.10 3.98 4.11 4.01 3.69 3.60 3.74 3.33 3.34 3.88 3.48 3.57 3.31 2.89 3.38 2.50 2.20 2.23 2.34 2.17 1.89 1.76 1.58 1.64
1.58 1.72 1.90 1.63 2.47 2.46 2.08 2.36 2.76 2.95 3.49 3.59 3.43 3.47 3.38 3.02 2.95 3.30 3.94 4.11 3.97 3.33 2.85 2.92 2.90 3.30 3.32 3.11 3.12 3.25 2.66 2.52 2.40 2.36 2.41 2.30 2.00 1.91
1.60 1.71 2.54 1.91 2.48 2.11 1.83 1.72 1.97 2.09 2.14 2.34 2.46 2.39 2.20 2.15 2.38 1.98 2.21 2.98 3.60 3.61 3.04 3.04 2.92 3.07 3.61 3.29 2.81 2.69 2.56 2.62 2.64 2.54 2.32 2.31 2.18 1.74
1.95 1.92 2.07 2.69 2.08 2.05 2.09 1.93 2.64 2.68 2.93 2.50 2.37 2.38 2.13 1.89 1.77 1.84 1.89 2.44 2.84 2.67 2.50 3.05 2.89 2.77 3.00 2.61 2.27 2.12 1.99 2.14 2.22 2.31 2.36 2.28 2.10 2.00
2.23 2.31 2.70 2.90 2.25 2.15 2.24 2.76 3.06 2.66 2.18 2.14 2.15 2.18 2.13 2.12 2.10 2.01 2.04 2.16 2.16 2.26 2.22 2.43 2.38 2.00 2.00 1.92 1.70 1.62 1.59 1.49 1.47 1.59 1.80 2.00 2.08 2.01
2.08 2.38 2.45 2.26 2.01 2.04 2.32 2.48 2.44 2.49 2.73 2.88 2.92 2.84 2.57 2.33 2.18 2.14 2.04 1.96 1.89 1.91 1.95 1.88 1.85 1.82 1.88 1.77 1.53 1.39 1.53 1.45 1.19 1.17 1.47 1.45 1.50 1.53
2.09 2.19 2.21 2.23 2.15 2.20 2.27 2.27 2.27 2.41 2.49 2.59 2.56 2.54 2.43 2.28 2.17 2.04 1.97 1.92 1.97 2.01 1.83 1.72 1.64 1.73 1.77 1.58 1.47 1.45 1.28 1.24 1.15 1.08 1.25 1.57 1.64 1.70
2.01 2.23 2.36 2.31 2.15 2.00 1.93 1.89 1.93 1.95 1.97 1.91 1.83 1.78 1.77 1.70 1.58 1.45 1.46 1.40 1.43 1.25 1.33 1.43 1.35 1.27 1.19 1.27 1.40 1.18 1.11 1.06 1.08 1.31 1.20 1.43 1.56 1.55
1.80 1.80 1.79 1.71 1.60 1.53 1.43 1.37 1.32 1.24 1.12 1.01 0.99 0.94 0.93 0.90 0.85 0.83 0.88 0.89 0.85 0.77 0.75 0.80 1.06 1.07 1.03 0.91 0.84 0.94 0.84 0.77 0.81 0.83 0.86 1.21 1.32 1.66
1.34 1.26 1.18 1.10 0.97 0.84 0.76 0.73 0.84 0.77 0.64 0.65 0.61 0.54 0.48 0.47 0.52 0.48 0.46 0.48 0.51 0.45 0.38 0.45 0.60 0.75 0.81 0.71 0.65 0.49 0.70 0.61 0.63 0.66 0.62 0.76 1.07 1.17
0.86 0.73 0.66 0.58 0.54 0.51 0.44 0.43 0.52 0.55 0.52 0.41 0.37 0.38 0.40 0.41 0.43 0.38 0.33 0.33 0.32 0.36 0.35 0.25 0.26 0.32 0.58 0.79 0.80 0.36 0.36 0.79 0.59 0.53 0.52 0.58 0.65 0.83
0.56 0.52 0.49 0.46 0.49 0.47 0.45 0.44 0.53 0.54 0.53 0.54 0.47 0.52 0.55 0.57 0.52 0.46 0.43 0.39 0.42 0.38 0.28 0.14 0.10 0.17 0.37 0.60 0.77 0.40 0.29 0.38 0.35 0.43 0.49 0.63 0.62 0.54
0.52 0.49 0.45 0.44 0.45 0.43 0.44 0.46 0.47 0.51 0.53 0.52 0.41 0.40 0.41 0.40 0.41 0.35 0.35 0.38 0.32 0.28 0.20 0.18 0.24 0.34 0.43 0.39 0.48 0.38 0.30 0.41 0.33 0.23 0.28 0.51 0.71 0.83
0.45 0.41 0.38 0.39 0.37 0.36 0.36 0.38 0.35 0.35 0.37 0.44 0.36 0.37 0.45 0.44 0.38 0.38 0.36 0.33 0.33 0.35 0.37 0.41 0.33 0.32 0.29 0.27 0.40 0.46 0.31 0.39 0.46 0.48 0.52 0.44 0.34 0.29

GFSNE_prec_precacc_234.txt.gz
Total_Precipitation_Accumulation
1.97 2.21 2.17 1.78 1.53 1.21 1.19 1.32 1.68 1.28 0.53 0.28 0.42 0.52 0.61 0.70 0.56 0.66 0.70 0.66 0.64 0.57 0.53 0.51 0.55 0.61 0.74 1.06 1.40 1.62 1.72 2.01 2.06 1.74 1.99 2.52 2.66 2.54
1.82 1.93 2.01 2.03 1.98 1.94 1.94 1.78 1.95 2.09 1.63 0.55 0.46 0.38 0.43 0.49 0.60 0.80 0.78 0.79 0.85 0.92 0.99 0.84 0.63 0.69 0.70 0.67 0.68 0.77 0.90 0.94 1.25 1.31 1.23 1.27 1.83 2.38
2.27 2.18 2.13 2.05 2.30 2.27 2.11 2.03 1.86 1.94 1.82 1.05 0.98 0.94 0.85 0.71 0.73 0.86 0.92 0.94 0.99 1.15 1.37 1.66 1.58 1.28 1.00 0.89 0.75 0.62 0.61 0.70 0.79 0.79 0.77 0.76 0.75 1.20
2.55 2.84 3.11 2.98 2.78 2.50 2.51 2.82 2.61 2.32 2.56 2.41 2.17 2.07 1.72 1.44 1.37 1.31 1.17 1.11 1.15 1.42 1.43 1.53 1.63 1.39 1.32 1.39 1.41 1.41 1.14 1.02 0.94 0.87 0.76 0.65 0.65 0.67
3.29 3.21 3.13 3.25 3.26 3.02 2.72 2.42 2.40 2.53 2.50 2.51 2.36 2.26 2.45 2.16 2.16 2.30 2.27 1.94 1.91 1.81 1.51 1.36 1.43 1.55 1.53 1.56 1.53 1.50 1.43 1.23 1.20 1.38 1.58 1.49 1.07 0.90
3.15 3.25 3.13 3.19 3.42 3.34 3.28 3.13 2.73 2.44 2.24 2.36 2.44 2.46 2.52 2.70 2.58 2.72 3.24 2.89 2.28 1.84 1.72 1.75 1.75 1.56 1.57 1.53 1.58 1.52 1.37 1.30 1.20 1.13 1.17 1.56 1.96 1.79
2.87 2.68 3.02 3.39 3.46 3.39 3.53 3.51 3.41 3.41 3.53 3.47 3.33 3.39 3.20 2.60 2.62 2.61 2.86 2.91 2.86 2.42 2.10 2.03 2.09 2.26 2.22 2.10 1.87 1.71 1.60 1.52 1.37 1.25 1.28 1.39 1.76 2.13
4.24 3.68 3.51 3.94 3.74 3.96 4.07 3.80 3.66 3.88 3.95 3.83 3.85 3.65 3.23 3.06 2.82 3.08 3.42 3.73 3.66 3.02 2.97 2.88 2.57 2.51 2.45 2.42 2.67 2.36 2.05 1.96 1.82 1.57 1.37 1.29 1.40 1.69
3.19 3.28 3.08 3.18 3.36 2.86 3.64 3.75 3.43 3.50 3.71 3.80 3.75 3.69 3.77 3.71 3.85 4.13 4.06 3.97 3.76 3.30 3.34 3.93 3.56 3.29 2.81 2.59 2.99 2.29 2.16 2.18 1.94 1.70 1.58 1.47 1.40 1.45
2.12 2.18 2.08 2.01 2.61 2.77 2.82 3.30 3.46 3.67 3.90 4.17 4.15 4.14 4.16 4.01 4.17 4.21 3.96 3.86 3.92 3.42 3.40 3.95 3.53 3.63 3.39 2.98 3.48 2.64 2.35 2.37 2.50 2.27 1.94 1.79 1.62 1.66
1.58 1.72 1.91 1.66 2.54 2.49 2.09 2.37 2.76 2.96 3.50 3.60 3.44 3.49 3.40 3.04 3.00 3.41 4.10 4.28 4.14 3.45 2.95 2.99 2.99 3.41 3.43 3.19 3.20 3.40 2.79 2.66 2.56 2.50 2.51 2.36 2.06 1.96
1.60 1.71 2.54 1.91 2.50 2.13 1.84 1.72 1.98 2.10 2.14 2.35 2.46 2.42 2.23 2.18 2.43 2.04 2.32 3.11 3.73 3.71 3.09 3.11 3.02 3.22 3.78 3.40 2.89 2.82 2.70 2.74 2.75 2.67 2.45 2.41 2.29 1.84
1.95 1.92 2.07 2.69 2.09 2.06 2.10 1.93 2.66 2.70 2.96 2.52 2.41 2.41 2.16 1.91 1.78 1.85 1.92 2.49 2.95 2.78 2.58 3.16 2.97 2.82 3.06 2.63 2.29 2.14 2.01 2.19 2.33 2.45 2.50 2.41 2.21 2.12
2.23 2.31 2.71 2.91 2.25 2.15 2.24 2.78 3.10 2.68 2.18 2.14 2.18 2.21 2.18 2.16 2.13 2.03 2.07 2.22 2.21 2.36 2.35 2.55 2.43 2.02 2.02 1.94 1.71 1.64 1.61 1.52 1.51 1.67 1.90 2.14 2.22 2.14
2.08 2.38 2.45 2.26 2.01 2.04 2.33 2.49 2.46 2.50 2.73 2.89 2.93 2.85 2.59 2.35 2.22 2.21 2.14 2.02 1.93 1.98 2.01 1.90 1.85 1.83 1.90 1.78 1.53 1.40 1.57 1.48 1.22 1.22 1.56 1.57 1.63 1.64
2.09 2.19 2.21 2.23 2.15 2.20 2.27 2.28 2.27 2.42 2.50 2.60 2.58 2.55 2.44 2.30 2.21 2.09 2.03 1.96 2.02 2.06 1.88 1.75 1.67 1.75 1.80 1.60 1.48 1.47 1.31 1.26 1.19 1.13 1.32 1.67 1.77 1.80
2.01 2.23 2.36 2.31 2.15 2.00 1.93 1.89 1.93 1.96 1.98 1.91 1.84 1.79 1.78 1.71 1.60 1.47 1.51 1.47 1.49 1.30 1.40 1.51 1.41 1.31 1.22 1.28 1.41 1.19 1.12 1.07 1.09 1.33 1.25 1.52 1.66 1.61
1.80 1.80 1.79 1.71 1.60 1.53 1.43 1.38 1.33 1.25 1.12 1.02 1.00 0.95 0.94 0.91 0.86 0.85 0.91 0.92 0.89 0.81 0.79 0.85 1.12 1.12 1.08 0.94 0.85 0.95 0.84 0.78 0.83 0.85 0.90 1.26 1.37 1.71
1.34 1.26 1.18 1.10 0.97 0.84 0.76 0.74 0.85 0.78 0.65 0.66 0.62 0.55 0.48 0.47 0.53 0.48 0.47 0.49 0.54 0.49 0.42 0.50 0.64 0.77 0.83 0.72 0.67 0.49 0.70 0.62 0.65 0.68 0.64 0.77 1.08 1.18
0.86 0.73 0.66 0.58 0.54 0.52 0.45 0.44 0.53 0.57 0.54 0.43 0.39 0.39 0.40 0.42 0.44 0.39 0.34 0.35 0.35 0.40 0.39 0.28 0.29 0.34 0.59 0.80 0.81 0.37 0.36 0.80 0.59 0.54 0.53 0.59 0.67 0.85
0.56 0.52 0.49 0.46 0.49 0.48 0.47 0.45 0.54 0.56 0.55 0.54 0.47 0.53 0.55 0.57 0.53 0.46 0.44 0.41 0.44 0.39 0.29 0.15 0.11 0.18 0.37 0.60 0.77 0.41 0.30 0.39 0.35 0.43 0.50 0.65 0.64 0.56
0.52 0.49 0.45 0.45 0.46 0.45 0.45 0.47 0.49 0.53 0.54 0.52 0.41 0.40 0.41 0.40 0.41 0.35 0.35 0.38 0.32 0.28 0.21 0.19 0.26 0.35 0.44 0.39 0.49 0.39 0.32 0.43 0.36 0.24 0.29 0.51 0.72 0.83
0.45 0.42 0.40 0.42 0.41 0.40 0.39 0.41 0.36 0.36 0.38 0.44 0.36 0.37 0.45 0.44 0.38 0.38 0.36 0.33 0.33 0.35 0.38 0.42 0.34 0.33 0.30 0.27 0.41 0.46 0.33 0.40 0.47 0.50 0.54 0.45 0.35 0.29

GFSNE_prec_precacc_237.txt.gz
Total_Precipitation_Accumulation
2.06 2.28 2.22 1.82 1.54 1.23 1.21 1.34 1.70 1.28 0.53 0.28 0.42 0.52 0.61 0.70 0.56 0.66 0.70 0.66 0.64 0.57 0.53 0.51 0.55 0.61 0.74 1.06 1.40 1.62 1.72 2.01 2.06 1.75 2.00 2.53 2.66 2.55
1.89 1.96 2.03 2.05 2.00 1.95 1.96 1.79 1.97 2.09 1.63 0.55 0.46 0.38 0.43 0.49 0.60 0.80 0.78 0.79 0.85 0.92 0.99 0.84 0.63 0.69 0.70 0.67 0.68 0.77 0.90 0.94 1.25 1.31 1.23 1.27 1.84 2.38
2.34 2.24 2.17 2.13 2.31 2.28 2.13 2.03 1.86 1.95 1.82 1.05 0.98 0.94 0.85 0.71 0.73 0.86 0.92 0.94 0.99 1.15 1.37 1.66 1.58 1.28 1.00 0.89 0.75 0.62 0.61 0.70 0.79 0.80 0.77 0.76 0.75 1.20
2.63 2.90 3.20 3.08 2.84 2.54 2.53 2.82 2.61 2.33 2.56 2.41 2.17 2.08 1.72 1.45 1.38 1.31 1.17 1.11 1.15 1.42 1.43 1.53 1.63 1.39 1.32 1.39 1.41 1.41 1.15 1.03 0.97 0.90 0.79 0.66 0.65 0.67
3.50 3.37 3.21 3.32 3.37 3.11 2.77 2.46 2.42 2.55 2.51 2.52 2.36 2.26 2.45 2.16 2.16 2.31 2.28 1.94 1.91 1.81 1.51 1.36 1.43 1.55 1.53 1.57 1.55 1.52 1.45 1.27 1.26 1.44 1.63 1.53 1.09 0.91
3.39 3.54 3.39 3.41 3.62 3.61 3.57 3.33 2.95 2.64 2.34 2.40 2.48 2.47 2.52 2.70 2.58 2.72 3.24 2.89 2.28 1.85 1.74 1.76 1.75 1.56 1.58 1.53 1.60 1.56 1.44 1.44 1.37 1.29 1.29 1.63 2.00 1.80
2.95 2.80 3.15 3.53 3.68 3.67 3.95 3.89 3.84 3.91 4.00 3.79 3.54 3.51 3.24 2.61 2.62 2.61 2.87 2.92 2.87 2.43 2.11 2.03 2.10 2.30 2.30 2.22 2.01 1.87 1.77 1.71 1.57 1.41 1.39 1.46 1.81 2.15
4.27 3.70 3.54 3.99 3.79 4.01 4.15 3.88 3.78 4.04 4.10 3.98 4.08 3.96 3.54 3.29 2.95 3.14 3.46 3.78 3.73 3.08 3.05 3.00 2.67 2.58 2.50 2.50 2.81 2.56 2.25 2.16 2.05 1.79 1.53 1.43 1.51 1.75
3.27 3.31 3.12 3.26 3.42 2.87 3.66 3.76 3.50 3.62 3.85 3.92 3.86 3.75 3.79 3.74 3.89 4.21 4.16 4.06 3.83 3.37 3.39 4.00 3.64 3.39 2.89 2.69 3.09 2.46 2.37 2.38 2.20 2.01 1.90 1.74 1.60 1.58
2.14 2.22 2.12 2.04 2.66 2.81 2.85 3.34 3.52 3.72 3.92 4.21 4.19 4.16 4.17 4.02 4.20 4.24 3.99 3.93 4.01 3.46 3.42 3.96 3.54 3.64 3.41 2.99 3.52 2.74 2.56 2.62 2.85 2.68 2.29 2.04 1.78 1.76
1.58 1.72 1.91 1.67 2.60 2.53 2.10 2.38 2.81 3.03 3.57 3.65 3.47 3.51 3.42 3.06 3.01 3.43 4.11 4.29 4.15 3.46 2.97 3.01 3.00 3.42 3.44 3.21 3.22 3.46 2.89 2.81 2.77 2.72 2.72 2.55 2.22 2.09
1.60 1.71 2.54 1.91 2.50 2.14 1.85 1.72 1.99 2.11 2.16 2.37 2.49 2.47 2.29 2.24 2.50 2.06 2.32 3.12 3.75 3.72 3.09 3.12 3.03 3.22 3.79 3.41 2.91 2.85 2.79 2.86 2.90 2.84 2.60 2.57 2.45 1.98
1.95 1.92 2.07 2.70 2.09 2.06 2.10 1.94 2.68 2.72 2.97 2.53 2.42 2.44 2.19 1.96 1.82 1.88 1.92 2.49 2.95 2.79 2.59 3.17 2.97 2.82 3.06 2.63 2.29 2.14 2.04 2.23 2.40 2.53 2.58 2.51 2.34 2.25
2.23 2.31 2.71 2.91 2.25 2.15 2.24 2.78 3.11 2.69 2.19 2.15 2.18 2.22 2.20 2.19 2.16 2.06 2.10 2.25 2.23 2.39 2.42 2.62 2.45 2.03 2.02 1.94 1.72 1.64 1.62 1.54 1.54 1.69 1.92 2.22 2.32 2.28
2.08 2.39 2.46 2.26 2.01 2.04 2.33 2.49 2.46 2.50 2.74 2.89 2.93 2.85 2.60 2.36 2.26 2.29 2.25 2.16 2.07 2.08 2.11 1.96 1.88 1.85 1.91 1.78 1.53 1.40 1.58 1.50 1.24 1.24 1.58 1.61 1.71 1.77
2.09 2.19 2.21 2.23 2.15 2.20 2.27 2.28 2.27 2.42 2.50 2.60 2.58 2.55 2.44 2.30 2.21 2.11 2.08 2.05 2.14 2.16 1.98 1.83 1.71 1.77 1.80 1.60 1.48 1.47 1.32 1.27 1.21 1.14 1.33 1.71 1.86 1.93
2.01 2.23 2.36 2.31 2.15 2.00 1.93 1.89 1.93 1.96 1.99 1.91 1.85 1.80 1.79 1.72 1.60 1.48 1.52 1.49 1.53 1.33 1.44 1.56 1.45 1.34 1.25 1.30 1.43 1.20 1.13 1.08 1.10 1.34 1.27 1.57 1.73 1.69
1.80 1.80 1.79 1.71 1.60 1.53 1.43 1.38 1.33 1.25 1.12 1.02 1.00 0.96 0.95 0.91 0.87 0.87 0.95 0.97 0.94 0.86 0.83 0.90 1.18 1.17 1.11 0.95 0.86 0.95 0.85 0.78 0.83 0.85 0.91 1.28 1.41 1.76
1.34 1.26 1.18 1.10 0.97 0.84 0.76 0.74 0.85 0.78 0.66 0.66 0.62 0.56 0.50 0.50 0.58 0.50 0.48 0.51 0.57 0.50 0.44 0.52 0.66 0.78 0.85 0.74 0.67 0.49 0.70 0.62 0.65 0.68 0.65 0.78 1.09 1.20
0.86 0.73 0.66 0.58 0.54 0.52 0.45 0.44 0.53 0.57 0.55 0.45 0.40 0.41 0.43 0.43 0.45 0.40 0.37 0.37 0.36 0.41 0.41 0.31 0.30 0.34 0.59 0.80 0.81 0.37 0.36 0.80 0.60 0.54 0.54 0.61 0.68 0.87
0.56 0.52 0.49 0.46 0.49 0.48 0.47 0.45 0.55 0.57 0.57 0.55 0.48 0.54 0.57 0.60 0.55 0.49 0.47 0.45 0.47 0.41 0.32 0.18 0.13 0.19 0.37 0.60 0.77 0.41 0.30 0.39 0.35 0.43 0.50 0.66 0.65 0.57
0.53 0.49 0.45 0.45 0.46 0.45 0.45 0.47 0.49 0.55 0.56 0.53 0.42 0.40 0.41 0.41 0.42 0.36 0.36 0.41 0.34 0.30 0.23 0.22 0.28 0.36 0.44 0.39 0.49 0.39 0.32 0.44 0.36 0.24 0.29 0.51 0.72 0.84
0.46 0.42 0.40 0.42 0.41 0.40 0.40 0.42 0.37 0.38 0.39 0.46 0.37 0.38 0.45 0.45 0.39 0.39 0.37 0.34 0.34 0.37 0.39 0.43 0.35 0.33 0.30 0.27 0.41 0.46 0.33 0.41 0.48 0.50 0.55 0.46 0.35 0.29

GFSNE_prec_precacc_243.txt.gz
Total_Precipitation_Accumulation
2.11 2.31 2.25 1.85 1.56 1.27 1.24 1.37 1.70 1.28 0.53 0.28 0.42 0.52 0.61 0.70 0.56 0.66 0.70 0.66 0.64 0.57 0.53 0.51 0.55 0.61 0.74 1.06 1.40 1.62 1.72 2.01 2.06 1.75 2.00 2.53 2.66 2.55
1.94 1.99 2.03 2.07 2.01 1.97 1.98 1.84 2.02 2.11 1.63 0.55 0.47 0.39 0.44 0.49 0.60 0.80 0.78 0.79 0.85 0.92 0.99 0.84 0.63 0.69 0.70 0.67 0.68 0.77 0.90 0.94 1.25 1.31 1.23 1.27 1.84 2.38
2.44 2.30 2.18 2.20 2.33 2.29 2.15 2.06 1.88 1.98 1.82 1.08 0.99 0.95 0.86 0.71 0.73 0.86 0.92 0.94 0.99 1.15 1.37 1.66 1.58 1.28 1.00 0.89 0.75 0.62 0.61 0.70 0.79 0.80 0.77 0.76 0.75 1.20
2.73 2.94 3.22 3.13 2.89 2.57 2.56 2.84 2.63 2.35 2.57 2.43 2.21 2.11 1.73 1.45 1.39 1.32 1.18 1.11 1.15 1.42 1.43 1.53 1.63 1.39 1.32 1.39 1.41 1.41 1.15 1.03 0.97 0.90 0.79 0.66 0.66 0.67
3.61 3.48 3.28 3.40 3.40 3.14 2.79 2.50 2.47 2.60 2.52 2.52 2.37 2.28 2.47 2.18 2.17 2.32 2.30 1.94 1.91 1.81 1.51 1.36 1.43 1.55 1.53 1.57 1.55 1.52 1.45 1.27 1.26 1.45 1.64 1.55 1.12 0.95
3.47 3.62 3.53 3.58 3.72 3.68 3.63 3.37 3.00 2.70 2.40 2.45 2.51 2.49 2.53 2.71 2.58 2.72 3.24 2.89 2.29 1.87 1.76 1.78 1.77 1.57 1.58 1.54 1.60 1.56 1.44 1.45 1.37 1.30 1.33 1.71 2.12 1.99
3.10 2.92 3.25 3.65 3.86 3.85 4.08 4.09 4.06 4.12 4.22 4.03 3.72 3.65 3.33 2.64 2.64 2.65 2.90 2.95 2.91 2.48 2.14 2.05 2.12 2.32 2.32 2.26 2.06 1.93 1.85 1.83 1.73 1.62 1.65 1.77 2.16 2.54
5.05 4.12 3.85 4.27 4.01 4.25 4.41 4.13 4.00 4.24 4.36 4.24 4.31 4.16 3.69 3.41 3.13 3.45 3.74 3.95 3.80 3.12 3.09 3.04 2.70 2.61 2.52 2.52 2.83 2.59 2.30 2.23 2.13 1.92 1.74 1.72 1.90 2.27
4.06 4.13 3.75 3.72 3.78 3.18 3.94 4.03 3.79 3.79 3.97 4.04 3.98 3.85 3.90 3.86 4.05 4.48 4.48 4.39 4.07 3.53 3.54 4.13 3.70 3.41 2.90 2.70 3.11 2.48 2.40 2.41 2.24 2.10 2.07 2.00 1.94 1.99
2.48 2.58 2.51 2.36 2.92 3.10 3.09 3.56 3.69 3.82 3.99 4.23 4.21 4.17 4.20 4.10 4.33 4.34 4.09 4.05 4.18 3.65 3.55 4.06 3.59 3.69 3.43 3.02 3.54 2.74 2.56 2.63 2.88 2.78 2.45 2.26 2.06 2.10
1.64 1.81 2.05 1.86 2.87 2.70 2.20 2.49 2.90 3.09 3.68 3.75 3.54 3.59 3.48 3.14 3.09 3.50 4.24 4.42 4.27 3.53 3.04 3.10 3.04 3.45 3.46 3.22 3.22 3.47 2.90 2.81 2.78 2.77 2.79 2.66 2.39 2.34
1.61 1.72 2.56 1.94 2.61 2.24 1.90 1.77 2.05 2.14 2.19 2.44 2.58 2.57 2.43 2.38 2.67 2.12 2.35 3.19 3.81 3.76 3.12 3.16 3.04 3.24 3.81 3.43 2.91 2.85 2.80 2.87 2.90 2.85 2.63 2.64 2.59 2.23
1.95 1.92 2.07 2.70 2.09 2.07 2.11 1.94 2.72 2.77 3.04 2.57 2.45 2.49 2.28 2.06 1.97 2.00 1.97 2.53 3.00 2.82 2.63 3.22 2.99 2.83 3.07 2.64 2.29 2.14 2.04 2.23 2.40 2.54 2.60 2.56 2.42 2.38
2.24 2.31 2.71 2.92 2.26 2.15 2.24 2.78 3.12 2.70 2.20 2.17 2.19 2.24 2.23 2.23 2.22 2.15 2.22 2.37 2.34 2.44 2.50 2.74 2.50 2.05 2.04 1.96 1.72 1.64 1.62 1.54 1.54 1.70 1.93 2.25 2.37 2.35
2.08 2.39 2.46 2.27 2.02 2.04 2.33 2.49 2.46 2.51 2.75 2.91 2.95 2.87 2.61 2.38 2.27 2.31 2.35 2.34 2.23 2.20 2.25 2.08 2.00 1.96 2.01 1.86 1.58 1.43 1.61 1.52 1.26 1.26 1.61 1.65 1.77 1.90
2.09 2.20 2.22 2.23 2.15 2.20 2.28 2.28 2.27 2.43 2.52 2.61 2.59 2.57 2.44 2.30 2.22 2.12 2.09 2.08 2.20 2.26 2.07 1.93 1.82 1.87 1.88 1.66 1.53 1.51 1.35 1.29 1.22 1.15 1.35 1.73 1.88 1.96
2.02 2.23 2.36 2.31 2.15 2.00 1.93 1.90 1.94 1.97 1.99 1.92 1.85 1.80 1.79 1.72 1.61 1.48 1.52 1.49 1.54 1.35 1.47 1.61 1.54 1.44 1.32 1.36 1.48 1.23 1.15 1.09 1.11 1.35 1.29 1.58 1.75 1.71
1.81 1.81 1.79 1.71 1.61 1.53 1.44 1.38 1.33 1.26 1.12 1.02 1.00 0.96 0.95 0.92 0.88 0.87 0.96 0.98 0.94 0.87 0.86 0.93 1.21 1.22 1.18 1.02 0.91 0.98 0.87 0.80 0.85 0.88 0.93 1.30 1.42 1.78
1.35 1.26 1.19 1.10 0.97 0.85 0.76 0.74 0.85 0.78 0.66 0.66 0.62 0.56 0.50 0.50 0.61 0.50 0.49 0.52 0.58 0.53 0.45 0.54 0.69 0.83 0.89 0.78 0.72 0.53 0.72 0.63 0.66 0.69 0.65 0.78 1.09 1.20
0.87 0.74 0.67 0.58 0.54 0.52 0.45 0.44 0.53 0.57 0.55 0.45 0.40 0.41 0.43 0.43 0.45 0.40 0.37 0.37 0.37 0.42 0.43 0.32 0.31 0.36 0.62 0.84 0.84 0.40 0.39 0.81 0.60 0.54 0.55 0.61 0.69 0.90
0.57 0.53 0.50 0.47 0.50 0.48 0.47 0.45 0.55 0.57 0.57 0.55 0.48 0.54 0.57 0.60 0.55 0.49 0.48 0.51 0.53 0.44 0.36 0.22 0.18 0.28 0.42 0.66 0.83 0.46 0.32 0.40 0.35 0.43 0.50 0.66 0.65 0.57
0.54 0.49 0.46 0.45 0.46 0.45 0.45 0.48 0.50 0.57 0.57 0.53 0.42 0.40 0.41 0.41 0.42 0.36 0.37 0.42 0.37 0.31 0.26 0.29 0.37 0.46 0.50 0.44 0.52 0.41 0.34 0.45 0.37 0.24 0.29 0.51 0.72 0.84
0.46 0.42 0.41 0.43 0.42 0.40 0.40 0.42 0.38 0.39 0.41 0.46 0.37 0.38 0.46 0.45 0.39 0.40 0.38 0.36 0.38 0.43 0.46 0.51 0.42 0.40 0.37 0.32 0.46 0.50 0.34 0.42 0.48 0.51 0.56 0.46 0.35 0.29

GFSNE_prec_precacc_246.txt.gz
Total_Precipitation_Accumulation
2.12 2.32 2.25 1.85 1.56 1.27 1.25 1.37 1.71 1.28 0.53 0.28 0.42 0.52 0.61 0.70 0.56 0.66 0.70 0.66 0.64 0.57 0.53 0.51 0.55 0.61 0.74 1.06 1.40 1.62 1.72 2.01 2.06 1.75 2.00 2.53 2.66 2.55
1.95 1.99 2.03 2.07 2.01 1.97 1.98 1.84 2.02 2.11 1.63 0.55 0.47 0.39 0.44 0.49 0.60 0.80 0.78 0.79 0.85 0.92 0.99 0.84 0.63 0.69 0.70 0.67 0.68 0.77 0.90 0.94 1.25 1.31 1.23 1.27 1.84 2.38
2.46 2.30 2.18 2.20 2.33 2.29 2.15 2.07 1.88 1.99 1.82 1.08 0.99 0.95 0.86 0.71 0.73 0.86 0.92 0.94 0.99 1.15 1.37 1.66 1.58 1.28 1.00 0.89 0.75 0.62 0.61 0.70 0.79 0.80 0.77 0.76 0.75 1.20
2.76 2.96 3.23 3.13 2.89 2.58 2.56 2.84 2.63 2.36 2.58 2.43 2.22 2.11 1.73 1.45 1.39 1.32 1.18 1.11 1.15 1.42 1.43 1.53 1.63 1.39 1.32 1.39 1.41 1.41 1.15 1.03 0.97 0.90 0.79 0.66 0.66 0.67
3.66 3.50 3.29 3.42 3.40 3.14 2.80 2.50 2.47 2.60 2.53 2.53 2.37 2.29 2.47 2.18 2.17 2.32 2.30 1.94 1.91 1.81 1.51 1.36 1.43 1.55 1.53 1.57 1.55 1.52 1.45 1.27 1.26 1.45 1.64 1.55 1.12 0.95
3.49 3.66 3.58 3.61 3.74 3.69 3.64 3.38 3.01 2.70 2.40 2.47 2.52 2.50 2.54 2.71 2.58 2.73 3.24 2.90 2.30 1.87 1.76 1.78 1.77 1.57 1.58 1.54 1.60 1.56 1.44 1.45 1.37 1.30 1.33 1.71 2.12 1.99
3.13 2.93 3.28 3.70 3.90 3.89 4.11 4.10 4.06 4.13 4.23 4.03 3.72 3.66 3.34 2.65 2.64 2.65 2.90 2.96 2.92 2.48 2.14 2.05 2.12 2.32 2.33 2.26 2.06 1.93 1.86 1.83 1.73 1.62 1.66 1.77 2.17 2.57
5.19 4.23 3.90 4.33 4.04 4.29 4.52 4.28 4.08 4.29 4.39 4.26 4.32 4.17 3.70 3.42 3.15 3.47 3.75 3.96 3.81 3.12 3.09 3.04 2.70 2.61 2.53 2.52 2.84 2.60 2.32 2.25 2.14 1.94 1.77 1.74 1.93 2.32
4.46 4.46 4.11 4.14 4.15 3.39 4.16 4.29 4.20 4.31 4.29 4.19 4.08 3.91 3.93 3.89 4.11 4.58 4.58 4.46 4.11 3.56 3.56 4.14 3.70 3.42 2.91 2.71 3.12 2.50 2.42 2.42 2.25 2.12 2.10 2.03 1.98 2.03
2.87 3.04 3.03 2.82 3.52 3.76 3.59 4.06 4.20 4.33 4.52 4.76 4.52 4.40 4.44 4.28 4.48 4.43 4.20 4.18 4.31 3.74 3.64 4.13 3.60 3.70 3.44 3.04 3.57 2.78 2.61 2.66 2.89 2.79 2.46 2.28 2.07 2.12
1.83 1.94 2.25 2.10 3.08 2.91 2.48 2.74 3.14 3.45 4.10 4.15 3.84 3.77 3.61 3.24 3.16 3.58 4.35 4.54 4.37 3.59 3.06 3.11 3.04 3.45 3.46 3.23 3.22 3.47 2.90 2.82 2.79 2.77 2.79 2.66 2.39 2.35
1.73 1.74 2.58 1.98 2.67 2.32 2.03 1.88 2.15 2.23 2.29 2.61 2.81 2.70 2.50 2.44 2.80 2.18 2.37 3.25 3.87 3.79 3.13 3.17 3.05 3.25 3.83 3.45 2.93 2.87 2.81 2.87 2.91 2.85 2.63 2.64 2.59 2.23
2.12 2.00 2.08 2.71 2.11 2.10 2.15 2.00 2.80 2.87 3.19 2.71 2.54 2.54 2.32 2.11 2.04 2.10 2.02 2.55 3.03 2.84 2.65 3.24 3.01 2.85 3.09 2.65 2.30 2.16 2.06 2.24 2.41 2.55 2.60 2.56 2.42 2.38
2.29 2.38 2.76 2.93 2.26 2.16 2.25 2.79 3.14 2.74 2.24 2.22 2.24 2.28 2.26 2.26 2.25 2.19 2.31 2.43 2.38 2.45 2.52 2.79 2.54 2.06 2.05 1.97 1.73 1.64 1.62 1.54 1.54 1.70 1.93 2.25 2.37 2.36
2.14 2.43 2.49 2.28 2.03 2.05 2.33 2.49 2.46 2.51 2.75 2.91 2.95 2.88 2.64 2.40 2.32 2.37 2.43 2.44 2.29 2.24 2.29 2.11 2.02 1.99 2.05 1.90 1.61 1.46 1.65 1.53 1.26 1.26 1.61 1.65 1.77 1.90
2.11 2.21 2.23 2.24 2.16 2.21 2.28 2.28 2.27 2.43 2.52 2.62 2.60 2.57 2.45 2.31 2.23 2.13 2.10 2.09 2.23 2.29 2.10 1.98 1.86 1.90 1.92 1.70 1.55 1.53 1.37 1.31 1.24 1.16 1.35 1.74 1.89 1.96
2.02 2.23 2.37 2.32 2.16 2.01 1.93 1.90 1.94 1.97 1.99 1.92 1.86 1.80 1.79 1.72 1.61 1.48 1.53 1.50 1.54 1.35 1.48 1.64 1.56 1.46 1.35 1.39 1.50 1.25 1.17 1.12 1.14 1.39 1.32 1.61 1.77 1.72
1.81 1.81 1.80 1.72 1.61 1.54 1.44 1.39 1.34 1.26 1.13 1.02 1.00 0.96 0.95 0.92 0.88 0.88 0.96 0.98 0.95 0.88 0.86 0.93 1.21 1.22 1.19 1.04 0.94 0.99 0.88 0.81 0.87 0.91 0.96 1.32 1.45 1.80
1.35 1.26 1.19 1.10 0.97 0.85 0.77 0.75 0.85 0.79 0.66 0.66 0.63 0.56 0.50 0.50 0.62 0.50 0.49 0.52 0.58 0.53 0.46 0.54 0.69 0.83 0.90 0.78 0.73 0.54 0.72 0.63 0.66 0.70 0.65 0.78 1.09 1.20
0.87 0.74 0.67 0.58 0.54 0.52 0.45 0.44 0.53 0.57 0.55 0.45 0.40 0.41 0.43 0.43 0.45 0.40 0.37 0.37 0.37 0.42 0.44 0.34 0.33 0.37 0.62 0.84 0.86 0.43 0.43 0.82 0.61 0.55 0.55 0.61 0.69 0.91
0.57 0.53 0.50 0.47 0.50 0.48 0.47 0.45 0.55 0.57 0.57 0.56 0.48 0.54 0.57 0.60 0.55 0.49 0.48 0.52 0.54 0.44 0.37 0.23 0.19 0.33 0.43 0.68 0.87 0.50 0.38 0.47 0.40 0.46 0.52 0.67 0.65 0.57
0.54 0.50 0.46 0.45 0.46 0.45 0.45 0.48 0.50 0.57 0.57 0.53 0.42 0.40 0.41 0.41 0.42 0.37 0.37 0.43 0.37 0.31 0.26 0.29 0.38 0.48 0.51 0.46 0.55 0.44 0.39 0.52 0.42 0.27 0.30 0.52 0.72 0.84
0.47 0.43 0.41 0.43 0.42 0.40 0.40 0.42 0.38 0.39 0.41 0.46 0.37 0.39 0.46 0.45 0.39 0.40 0.38 0.36 0.38 0.43 0.47 0.52 0.43 0.42 0.39 0.35 0.50 0.54 0.41 0.48 0.53 0.55 0.57 0.46 0.35 0.29

GFSNE_prec_precacc_249.txt.gz
Total_Precipitation_Accumulation
2.12 2.32 2.25 1.85 1.56 1.27 1.25 1.37 1.71 1.28 0.53 0.28 0.42 0.52 0.61 0.70 0.56 0.66 0.70 0.66 0.64 0.57 0.53 0.51 0.55 0.61 0.74 1.06 1.40 1.62 1.72 2.01 2.06 1.75 2.00 2.53 2.66 2.56
1.96 1.99 2.03 2.07 2.01 1.97 1.98 1.84 2.02 2.11 1.63 0.55 0.47 0.39 0.44 0.49 0.60 0.80 0.78 0.79 0.85 0.92 0.99 0.84 0.63 0.69 0.70 0.67 0.68 0.77 0.90 0.94 1.25 1.31 1.23 1.27 1.84 2.38
2.48 2.31 2.18 2.20 2.33 2.29 2.15 2.07 1.88 1.99 1.82 1.08 0.99 0.95 0.86 0.71 0.73 0.86 0.92 0.94 0.99 1.15 1.37 1.66 1.58 1.28 1.00 0.89 0.75 0.62 0.61 0.70 0.79 0.80 0.77 0.76 0.75 1.20
2.77 2.96 3.23 3.13 2.89 2.58 2.56 2.84 2.63 2.36 2.58 2.43 2.22 2.11 1.73 1.45 1.39 1.32 1.18 1.11 1.15 1.42 1.43 1.53 1.63 1.39 1.32 1.39 1.41 1.41 1.15 1.03 0.97 0.90 0.79 0.66 0.66 0.67
3.67 3.51 3.30 3.43 3.40 3.14 2.80 2.50 2.47 2.60 2.53 2.53 2.37 2.30 2.47 2.18 2.17 2.32 2.30 1.94 1.91 1.81 1.51 1.36 1.43 1.55 1.53 1.57 1.55 1.52 1.45 1.27 1.26 1.45 1.64 1.55 1.12 0.95
3.49 3.67 3.58 3.61 3.74 3.69 3.64 3.38 3.01 2.70 2.40 2.47 2.52 2.50 2.54 2.71 2.58 2.73 3.24 2.90 2.30 1.87 1.76 1.78 1.77 1.57 1.58 1.54 1.60 1.56 1.44 1.45 1.37 1.30 1.33 1.71 2.12 1.99
3.15 2.94 3.29 3.70 3.91 3.90 4.11 4.10 4.06 4.13 4.23 4.03 3.72 3.66 3.34 2.65 2.64 2.65 2.90 2.96 2.92 2.49 2.14 2.05 2.12 2.32 2.33 2.26 2.06 1.93 1.86 1.83 1.73 1.62 1.66 1.77 2.17 2.57
5.31 4.28 3.91 4.35 4.06 4.32 4.54 4.30 4.09 4.29 4.39 4.26 4.32 4.17 3.70 3.42 3.15 3.47 3.75 3.96 3.81 3.12 3.11 3.05 2.70 2.61 2.53 2.52 2.84 2.60 2.32 2.25 2.15 1.95 1.79 1.79 1.99 2.38
4.94 4.80 4.22 4.24 4.21 3.41 4.18 4.31 4.22 4.33 4.30 4.20 4.08 3.91 3.93 3.89 4.12 4.60 4.60 4.47 4.12 3.57 3.58 4.15 3.70 3.42 2.91 2.72 3.12 2.51 2.42 2.42 2.26 2.12 2.10 2.05 2.00 2.06
3.27 3.60 3.45 3.12 3.75 3.98 3.76 4.18 4.31 4.39 4.56 4.81 4.62 4.47 4.49 4.41 4.65 4.62 4.35 4.37 4.46 3.82 3.70 4.19 3.64 3.73 3.46 3.06 3.59 2.80 2.61 2.67 2.90 2.80 2.48 2.31 2.11 2.15
2.21 2.41 2.76 2.62 3.43 3.33 2.89 3.09 3.47 3.73 4.38 4.45 4.09 4.07 3.92 3.50 3.45 4.00 4.81 4.87 4.67 3.80 3.20 3.21 3.10 3.48 3.49 3.24 3.23 3.49 2.92 2.82 2.80 2.79 2.81 2.69 2.43 2.40
1.90 2.07 2.97 2.27 2.97 2.53 2.31 2.23 2.33 2.41 2.47 2.83 3.16 3.19 2.89 2.75 3.08 2.44 2.59 3.41 3.99 3.86 3.17 3.21 3.08 3.28 3.87 3.46 2.93 2.87 2.81 2.88 2.91 2.85 2.63 2.65 2.60 2.25
2.36 2.22 2.35 3.00 2.25 2.20 2.28 2.09 2.87 2.95 3.26 2.79 2.69 2.80 2.58 2.31 2.23 2.27 2.13 2.63 3.11 2.88 2.69 3.32 3.05 2.88 3.13 2.67 2.30 2.16 2.06 2.25 2.42 2.55 2.61 2.56 2.42 2.38
2.61 2.69 2.98 3.15 2.49 2.30 2.32 2.86 3.21 2.79 2.26 2.27 2.37 2.47 2.48 2.47 2.40 2.32 2.43 2.52 2.44 2.48 2.54 2.84 2.57 2.09 2.09 2.00 1.75 1.65 1.63 1.54 1.54 1.70 1.93 2.25 2.37 2.36
2.28 2.63 2.76 2.50 2.14 2.13 2.44 2.57 2.50 2.53 2.78 2.93 2.98 2.95 2.78 2.61 2.52 2.53 2.58 2.58 2.38 2.30 2.34 2.14 2.05 2.02 2.08 1.93 1.64 1.48 1.67 1.53 1.27 1.27 1.62 1.66 1.78 1.90
2.15 2.27 2.34 2.39 2.30 2.29 2.35 2.34 2.31 2.45 2.53 2.63 2.60 2.58 2.49 2.39 2.31 2.21 2.18 2.17 2.31 2.34 2.14 2.02 1.90 1.94 1.98 1.76 1.61 1.58 1.40 1.34 1.25 1.18 1.38 1.76 1.91 1.97
2.02 2.24 2.39 2.36 2.22 2.08 1.99 1.96 2.00 2.01 2.00 1.93 1.86 1.81 1.80 1.73 1.63 1.52 1.56 1.53 1.58 1.38 1.50 1.67 1.62 1.49 1.36 1.40 1.53 1.29 1.23 1.17 1.18 1.42 1.35 1.63 1.79 1.74
1.81 1.81 1.80 1.72 1.62 1.54 1.45 1.40 1.35 1.28 1.14 1.03 1.01 0.96 0.95 0.92 0.88 0.88 0.96 0.99 0.95 0.88 0.87 0.94 1.22 1.23 1.20 1.06 0.98 1.00 0.88 0.82 0.89 0.93 0.99 1.36 1.48 1.83
1.35 1.26 1.19 1.10 0.97 0.85 0.77 0.75 0.86 0.79 0.66 0.68 0.64 0.57 0.52 0.51 0.62 0.50 0.49 0.52 0.58 0.54 0.46 0.54 0.70 0.83 0.90 0.78 0.73 0.54 0.72 0.63 0.66 0.70 0.67 0.80 1.11 1.23
0.87 0.74 0.67 0.58 0.54 0.52 0.45 0.44 0.53 0.57 0.55 0.45 0.41 0.42 0.45 0.47 0.48 0.43 0.38 0.38 0.37 0.42 0.44 0.34 0.34 0.37 0.62 0.84 0.86 0.43 0.44 0.83 0.62 0.56 0.56 0.62 0.72 0.94
0.57 0.53 0.50 0.47 0.50 0.48 0.47 0.45 0.55 0.57 0.58 0.56 0.48 0.54 0.58 0.61 0.57 0.50 0.49 0.53 0.55 0.44 0.37 0.23 0.19 0.34 0.44 0.70 0.88 0.52 0.41 0.52 0.43 0.48 0.56 0.71 0.68 0.59
0.54 0.50 0.46 0.45 0.46 0.45 0.45 0.48 0.50 0.57 0.57 0.53 0.42 0.40 0.41 0.41 0.42 0.37 0.38 0.43 0.37 0.31 0.26 0.29 0.38 0.48 0.52 0.46 0.55 0.45 0.41 0.55 0.48 0.35 0.37 0.58 0.76 0.87
0.47 0.43 0.41 0.43 0.42 0.41 0.40 0.42 0.38 0.39 0.41 0.46 0.37 0.39 0.46 0.45 0.40 0.40 0.39 0.37 0.39 0.43 0.47 0.52 0.43 0.42 0.40 0.36 0.51 0.55 0.42 0.50 0.57 0.60 0.63 0.51 0.37 0.32

GFSNE_prec_precacc_252.txt.gz
Total_Precipitation_Accumulation
2.12 2.32 2.25 1.85 1.56 1.27 1.25 1.37 1.71 1.28 0.53 0.28 0.42 0.52 0.61 0.70 0.56 0.66 0.70 0.66 0.64 0.57 0.53 0.51 0.55 0.61 0.74 1.06 1.40 1.62 1.72 2.01 2.07 1.76 2.00 2.53 2.66 2.56
1.96 1.99 2.03 2.07 2.01 1.97 1.98 1.84 2.02 2.11 1.63 0.55 0.47 0.39 0.44 0.49 0.60 0.80 0.78 0.79 0.85 0.92 0.99 0.84 0.63 0.69 0.70 0.67 0.68 0.77 0.90 0.94 1.25 1.31 1.23 1.27 1.84 2.38
2.49 2.31 2.18 2.20 2.33 2.29 2.15 2.07 1.88 1.99 1.82 1.08 0.99 0.95 0.86 0.71 0.73 0.86 0.92 0.94 0.99 1.15 1.37 1.66 1.58 1.28 1.00 0.89 0.75 0.62 0.61 0.70 0.79 0.80 0.77 0.76 0.75 1.20
2.84 2.99 3.24 3.14 2.89 2.58 2.56 2.84 2.63 2.36 2.58 2.43 2.22 2.11 1.73 1.45 1.39 1.32 1.18 1.11 1.15 1.42 1.43 1.53 1.63 1.39 1.32 1.39 1.41 1.41 1.15 1.03 0.97 0.90 0.79 0.66 0.66 0.67
3.78 3.57 3.32 3.45 3.41 3.14 2.80 2.50 2.47 2.60 2.53 2.53 2.37 2.30 2.47 2.18 2.17 2.32 2.30 1.94 1.91 1.81 1.51 1.36 1.43 1.55 1.53 1.57 1.55 1.52 1.45 1.27 1.26 1.45 1.64 1.55 1.12 0.95
3.60 3.73 3.63 3.65 3.75 3.70 3.65 3.38 3.01 2.70 2.40 2.47 2.52 2.50 2.54 2.71 2.58 2.73 3.24 2.90 2.30 1.87 1.76 1.78 1.77 1.57 1.58 1.54 1.60 1.56 1.44 1.45 1.37 1.30 1.33 1.71 2.12 1.99
3.31 2.99 3.32 3.73 3.92 3.91 4.12 4.11 4.07 4.13 4.23 4.03 3.72 3.66 3.34 2.65 2.64 2.65 2.90 2.96 2.92 2.49 2.14 2.05 2.12 2.32 2.33 2.26 2.06 1.93 1.86 1.83 1.73 1.62 1.66 1.77 2.17 2.57
6.01 4.52 3.96 4.38 4.07 4.33 4.55 4.30 4.09 4.29 4.40 4.26 4.32 4.17 3.70 3.42 3.15 3.47 3.75 3.96 3.81 3.12 3.11 3.05 2.70 2.61 2.53 2.52 2.84 2.60 2.32 2.25 2.15 1.95 1.79 1.79 1.99 2.40
5.66 5.50 4.60 4.36 4.27 3.42 4.19 4.31 4.22 4.33 4.30 4.20 4.08 3.91 3.93 3.89 4.12 4.60 4.60 4.47 4.12 3.57 3.58 4.15 3.71 3.42 2.91 2.72 3.12 2.51 2.42 2.42 2.26 2.13 2.11 2.05 2.01 2.07
3.57 4.06 4.07 3.64 4.00 4.07 3.77 4.19 4.32 4.40 4.57 4.82 4.62 4.47 4.49 4.41 4.65 4.62 4.35 4.38 4.47 3.83 3.70 4.20 3.65 3.74 3.46 3.06 3.59 2.81 2.62 2.68 2.92 2.82 2.50 2.33 2.12 2.17
2.30 2.55 3.04 2.95 3.80 3.51 2.97 3.20 3.56 3.77 4.42 4.48 4.10 4.08 3.93 3.51 3.45 4.02 4.85 4.92 4.72 3.84 3.24 3.24 3.14 3.53 3.52 3.28 3.26 3.53 2.95 2.85 2.81 2.80 2.83 2.71 2.43 2.40
1.93 2.13 3.12 2.44 3.09 2.74 2.52 2.52 2.71 2.73 2.67 2.93 3.25 3.27 3.02 2.86 3.16 2.50 2.69 3.55 4.12 3.94 3.20 3.25 3.12 3.34 4.00 3.56 3.01 2.94 2.87 2.93 2.94 2.86 2.64 2.66 2.61 2.25
2.39 2.25 2.40 3.15 2.46 2.35 2.49 2.45 3.30 3.28 3.53 2.96 2.82 2.94 2.76 2.50 2.36 2.41 2.31 2.78 3.25 2.95 2.72 3.37 3.12 2.93 3.19 2.72 2.32 2.20 2.11 2.29 2.46 2.57 2.61 2.56 2.43 2.39
2.62 2.71 3.02 3.25 2.56 2.43 2.52 3.07 3.49 3.08 2.47 2.38 2.51 2.65 2.63 2.60 2.50 2.43 2.58 2.69 2.57 2.55 2.61 2.97 2.66 2.13 2.11 2.04 1.77 1.65 1.63 1.55 1.56 1.71 1.94 2.26 2.39 2.37
2.29 2.64 2.80 2.57 2.24 2.27 2.59 2.74 2.64 2.62 2.87 3.05 3.09 3.07 2.89 2.71 2.63 2.66 2.74 2.77 2.52 2.41 2.47 2.29 2.20 2.12 2.14 1.97 1.68 1.50 1.70 1.56 1.30 1.30 1.65 1.68 1.79 1.92
2.15 2.28 2.35 2.44 2.44 2.45 2.49 2.47 2.47 2.61 2.65 2.72 2.70 2.70 2.59 2.46 2.40 2.31 2.27 2.29 2.45 2.44 2.22 2.15 2.04 2.07 2.08 1.82 1.65 1.61 1.43 1.38 1.28 1.20 1.40 1.80 1.93 2.00
2.02 2.24 2.39 2.36 2.23 2.16 2.17 2.14 2.15 2.17 2.16 2.06 1.97 1.89 1.86 1.80 1.71 1.61 1.65 1.63 1.67 1.45 1.58 1.77 1.72 1.61 1.46 1.47 1.57 1.32 1.24 1.20 1.22 1.48 1.42 1.70 1.85 1.78
1.81 1.81 1.80 1.72 1.63 1.56 1.47 1.44 1.44 1.42 1.30 1.19 1.12 1.03 1.00 0.96 0.92 0.92 1.01 1.05 1.02 0.94 0.96 1.06 1.34 1.36 1.33 1.16 1.08 1.07 0.95 0.86 0.90 0.94 1.01 1.40 1.53 1.87
1.35 1.26 1.19 1.10 0.97 0.85 0.77 0.75 0.86 0.80 0.68 0.71 0.70 0.64 0.58 0.55 0.66 0.52 0.51 0.55 0.62 0.59 0.52 0.61 0.75 0.89 0.95 0.84 0.78 0.58 0.74 0.66 0.71 0.76 0.71 0.82 1.12 1.24
0.87 0.74 0.67 0.58 0.54 0.52 0.45 0.44 0.53 0.57 0.55 0.45 0.41 0.43 0.47 0.50 0.52 0.46 0.41 0.40 0.39 0.46 0.47 0.38 0.37 0.39 0.64 0.85 0.86 0.43 0.45 0.83 0.62 0.56 0.56 0.62 0.72 0.96
0.57 0.53 0.50 0.47 0.50 0.48 0.47 0.45 0.55 0.57 0.58 0.56 0.48 0.54 0.58 0.61 0.58 0.52 0.52 0.57 0.60 0.49 0.41 0.26 0.21 0.38 0.47 0.71 0.89 0.52 0.42 0.53 0.43 0.49 0.56 0.72 0.69 0.60
0.55 0.50 0.47 0.46 0.47 0.45 0.45 0.48 0.50 0.57 0.57 0.53 0.42 0.40 0.41 0.41 0.42 0.37 0.39 0.45 0.40 0.34 0.29 0.33 0.46 0.56 0.57 0.48 0.56 0.45 0.41 0.56 0.50 0.38 0.40 0.61 0.77 0.88
0.48 0.44 0.42 0.43 0.42 0.41 0.40 0.42 0.38 0.39 0.41 0.46 0.37 0.39 0.46 0.45 0.40 0.40 0.39 0.37 0.40 0.45 0.48 0.54 0.47 0.48 0.46 0.41 0.57 0.59 0.45 0.52 0.58 0.61 0.65 0.54 0.40 0.34

GFSNE_prec_precacc_258.txt.gz
Total_Precipitation_Accumulation
2.18 2.36 2.27 1.85 1.56 1.27 1.25 1.37 1.71 1.28 0.53 0.28 0.42 0.52 0.61 0.70 0.56 0.66 0.70 0.66 0.64 0.57 0.53 0.51 0.55 0.61 0.74 1.06 1.40 1.62 1.72 2.01 2.07 1.76 2.01 2.54 2.67 2.57
2.07 2.06 2.06 2.08 2.02 1.97 1.98 1.84 2.02 2.11 1.63 0.55 0.47 0.39 0.44 0.49 0.60 0.80 0.78 0.79 0.85 0.92 0.99 0.84 0.63 0.69 0.70 0.67 0.68 0.77 0.90 0.94 1.25 1.31 1.23 1.28 1.84 2.39
2.64 2.41 2.24 2.24 2.35 2.30 2.15 2.07 1.88 1.99 1.82 1.08 0.99 0.95 0.86 0.71 0.73 0.86 0.92 0.94 0.99 1.15 1.37 1.66 1.58 1.28 1.00 0.89 0.75 0.62 0.61 0.70 0.79 0.80 0.77 0.76 0.75 1.20
3.06 3.09 3.31 3.21 2.93 2.60 2.56 2.84 2.63 2.36 2.58 2.43 2.22 2.11 1.73 1.45 1.39 1.32 1.18 1.11 1.15 1.42 1.43 1.53 1.63 1.39 1.32 1.39 1.41 1.41 1.15 1.03 0.97 0.90 0.79 0.66 0.66 0.67
4.34 3.74 3.42 3.55 3.47 3.17 2.82 2.50 2.47 2.60 2.53 2.53 2.37 2.30 2.47 2.18 2.17 2.32 2.30 1.94 1.91 1.81 1.51 1.36 1.43 1.55 1.53 1.57 1.55 1.52 1.45 1.27 1.26 1.45 1.64 1.55 1.12 0.95
5.48 4.95 4.01 3.80 3.85 3.76 3.69 3.42 3.02 2.70 2.40 2.47 2.52 2.50 2.54 2.71 2.58 2.73 3.24 2.90 2.30 1.87 1.76 1.78 1.77 1.57 1.58 1.54 1.60 1.56 1.44 1.45 1.37 1.30 1.33 1.71 2.12 1.99
4.62 4.62 4.56 4.53 4.28 4.00 4.17 4.16 4.10 4.14 4.23 4.03 3.72 3.66 3.34 2.65 2.64 2.65 2.90 2.96 2.92 2.49 2.14 2.05 2.12 2.32 2.33 2.26 2.06 1.93 1.86 1.83 1.73 1.62 1.66 1.77 2.17 2.57
6.89 5.54 4.99 5.21 4.75 4.70 4.66 4.37 4.16 4.34 4.42 4.27 4.32 4.17 3.70 3.42 3.15 3.47 3.75 3.96 3.81 3.12 3.11 3.05 2.70 2.61 2.53 2.52 2.84 2.60 2.32 2.25 2.15 1.95 1.79 1.79 1.99 2.40
6.24 6.33 5.51 5.19 4.85 3.82 4.56 4.45 4.25 4.35 4.32 4.20 4.08 3.91 3.93 3.90 4.12 4.60 4.60 4.47 4.12 3.57 3.58 4.15 3.71 3.42 2.91 2.72 3.12 2.51 2.42 2.42 2.26 2.13 2.11 2.05 2.01 2.07
3.80 4.47 4.71 4.38 4.68 4.46 4.06 4.45 4.43 4.41 4.57 4.82 4.62 4.47 4.49 4.42 4.66 4.63 4.36 4.38 4.47 3.83 3.70 4.20 3.65 3.74 3.46 3.06 3.59 2.81 2.62 2.68 2.92 2.82 2.50 2.33 2.14 2.19
2.39 2.70 3.31 3.31 4.21 3.94 3.31 3.50 3.80 3.89 4.47 4.50 4.11 4.09 3.93 3.51 3.45 4.02 4.85 4.92 4.72 3.85 3.24 3.24 3.15 3.53 3.53 3.28 3.26 3.53 2.95 2.85 2.82 2.80 2.83 2.71 2.46 2.44
1.94 2.16 3.22 2.59 3.24 2.91 2.82 2.84 2.97 2.91 2.78 2.98 3.27 3.29 3.04 2.86 3.16 2.50 2.69 3.55 4.13 3.95 3.21 3.25 3.13 3.35 4.01 3.57 3.01 2.94 2.88 2.94 2.97 2.89 2.66 2.66 2.62 2.26
2.39 2.25 2.42 3.21 2.53 2.43 2.63 2.68 3.53 3.48 3.69 3.06 2.88 3.01 2.80 2.53 2.39 2.41 2.32 2.79 3.26 2.96 2.72 3.38 3.13 2.95 3.20 2.72 2.33 2.20 2.12 2.31 2.48 2.58 2.64 2.59 2.45 2.42
2.62 2.71 3.03 3.29 2.59 2.46 2.59 3.25 3.67 3.19 2.57 2.50 2.59 2.76 2.80 2.77 2.68 2.65 2.79 2.83 2.64 2.58 2.63 3.00 2.69 2.14 2.12 2.05 1.78 1.66 1.64 1.57 1.59 1.74 1.96 2.29 2.45 2.45
2.29 2.64 2.80 2.58 2.25 2.28 2.61 2.82 2.75 2.72 3.01 3.25 3.31 3.27 3.09 2.88 2.77 2.84 2.96 3.06 2.81 2.64 2.64 2.42 2.29 2.18 2.18 2.01 1.70 1.53 1.74 1.60 1.34 1.33 1.71 1.76 1.89 2.02
2.15 2.28 2.35 2.44 2.44 2.45 2.49 2.48 2.50 2.67 2.78 2.87 2.90 2.91 2.81 2.66 2.57 2.47 2.42 2.40 2.58 2.57 2.34 2.27 2.19 2.24 2.29 1.98 1.78 1.72 1.50 1.46 1.35 1.26 1.46 1.86 1.99 2.05
2.02 2.24 2.39 2.36 2.23 2.16 2.17 2.14 2.16 2.19 2.22 2.14 2.09 2.06 2.06 1.98 1.89 1.79 1.81 1.78 1.81 1.55 1.68 1.89 1.87 1.75 1.61 1.60 1.72 1.44 1.33 1.28 1.28 1.53 1.48 1.74 1.89 1.83
1.81 1.81 1.80 1.72 1.63 1.56 1.47 1.44 1.45 1.43 1.32 1.22 1.19 1.15 1.18 1.19 1.15 1.12 1.17 1.20 1.18 1.10 1.10 1.21 1.51 1.54 1.50 1.31 1.26 1.17 1.06 0.98 1.02 1.04 1.09 1.44 1.55 1.90
1.35 1.27 1.19 1.11 0.98 0.85 0.77 0.75 0.86 0.80 0.68 0.73 0.74 0.71 0.67 0.68 0.87 0.73 0.71 0.73 0.78 0.75 0.68 0.77 0.92 1.04 1.09 0.94 0.88 0.78 0.90 0.81 0.92 1.01 0.93 0.98 1.21 1.30
0.88 0.75 0.68 0.59 0.55 0.52 0.45 0.44 0.53 0.57 0.55 0.45 0.41 0.43 0.49 0.55 0.61 0.57 0.52 0.54 0.56 0.64 0.65 0.55 0.56 0.61 0.85 1.02 1.00 0.55 0.67 0.96 0.75 0.70 0.68 0.73 0.82 1.10
0.59 0.55 0.52 0.48 0.50 0.49 0.47 0.45 0.55 0.58 0.58 0.56 0.48 0.54 0.58 0.62 0.58 0.55 0.60 0.69 0.74 0.63 0.55 0.41 0.37 0.62 0.70 0.88 1.02 0.64 0.55 0.69 0.52 0.56 0.63 0.80 0.75 0.65
0.57 0.53 0.49 0.48 0.48 0.46 0.46 0.48 0.50 0.57 0.57 0.53 0.42 0.40 0.41 0.41 0.42 0.37 0.39 0.47 0.45 0.42 0.38 0.46 0.64 0.75 0.71 0.60 0.68 0.59 0.58 0.76 0.72 0.54 0.53 0.72 0.85 0.93
0.52 0.47 0.45 0.45 0.44 0.42 0.41 0.43 0.39 0.39 0.41 0.46 0.37 0.39 0.46 0.45 0.40 0.40 0.39 0.37 0.40 0.45 0.50 0.58 0.57 0.63 0.61 0.55 0.71 0.75 0.64 0.74 0.82 0.83 0.83 0.71 0.52 0.43

GFSNE_prec_precacc_264.txt.gz
Total_Precipitation_Accumulation
2.59 2.73 2.70 2.22 1.70 1.28 1.25 1.37 1.71 1.28 0.53 0.28 0.42 0.52 0.61 0.70 0.56 0.66 0.70 0.66 0.64 0.57 0.53 0.51 0.55 0.61 0.74 1.06 1.40 1.62 1.72 2.01 2.07 1.76 2.01 2.54 2.67 2.57
2.52 2.37 2.29 2.29 2.17 2.03 1.99 1.84 2.02 2.11 1.63 0.55 0.47 0.39 0.44 0.49 0.60 0.80 0.78 0.79 0.85 0.92 0.99 0.84 0.63 0.69 0.70 0.67 0.68 0.77 0.90 0.94 1.25 1.31 1.23 1.28 1.84 2.39
2.95 2.64 2.45 2.41 2.49 2.35 2.17 2.08 1.88 1.99 1.82 1.08 0.99 0.95 0.86 0.71 0.73 0.86 0.92 0.94 0.99 1.15 1.37 1.66 1.58 1.28 1.00 0.89 0.75 0.62 0.61 0.70 0.79 0.80 0.77 0.76 0.75 1.20
3.33 3.34 3.42 3.29 3.09 2.77 2.60 2.87 2.64 2.36 2.58 2.43 2.22 2.11 1.73 1.45 1.39 1.32 1.18 1.11 1.15 1.42 1.43 1.53 1.63 1.39 1.32 1.39 1.41 1.41 1.15 1.03 0.97 0.90 0.79 0.66 0.66 0.67
4.44 3.93 3.59 3.63 3.52 3.27 2.94 2.55 2.49 2.62 2.54 2.53 2.37 2.30 2.47 2.18 2.17 2.32 2.30 1.94 1.91 1.81 1.51 1.36 1.43 1.55 1.53 1.57 1.55 1.52 1.45 1.27 1.26 1.45 1.64 1.55 1.12 0.95
5.52 5.11 4.20 3.95 3.94 3.80 3.73 3.48 3.06 2.73 2.42 2.47 2.52 2.50 2.54 2.71 2.58 2.73 3.24 2.90 2.30 1.87 1.76 1.78 1.77 1.57 1.58 1.54 1.60 1.56 1.44 1.45 1.37 1.30 1.33 1.71 2.12 1.99
4.78 4.77 5.04 4.93 4.55 4.16 4.21 4.18 4.13 4.18 4.27 4.05 3.72 3.66 3.34 2.65 2.64 2.65 2.90 2.96 2.92 2.49 2.14 2.05 2.12 2.32 2.33 2.26 2.06 1.93 1.86 1.83 1.73 1.62 1.66 1.77 2.17 2.57
7.14 5.83 5.29 5.63 5.17 5.01 4.82 4.41 4.16 4.36 4.45 4.30 4.34 4.17 3.70 3.42 3.15 3.47 3.75 3.96 3.81 3.12 3.11 3.05 2.70 2.61 2.53 2.52 2.84 2.60 2.32 2.25 2.15 1.95 1.79 1.79 1.99 2.40
6.48 6.56 5.75 5.46 5.15 4.14 4.89 4.65 4.28 4.36 4.35 4.23 4.11 3.92 3.93 3.90 4.12 4.60 4.60 4.47 4.12 3.57 3.58 4.15 3.71 3.42 2.91 2.72 3.12 2.51 2.42 2.42 2.26 2.13 2.11 2.05 2.01 2.07
4.05 4.65 4.87 4.49 4.84 4.74 4.30 4.64 4.61 4.48 4.59 4.83 4.64 4.49 4.50 4.42 4.66 4.63 4.36 4.38 4.47 3.83 3.70 4.20 3.65 3.74 3.46 3.06 3.59 2.81 2.62 2.68 2.92 2.82 2.50 2.33 2.14 2.19
2.71 2.91 3.46 3.43 4.35 4.11 3.55 3.77 4.04 4.22 4.76 4.60 4.16 4.11 3.94 3.52 3.45 4.02 4.85 4.92 4.73 3.85 3.24 3.24 3.16 3.55 3.54 3.28 3.26 3.53 2.95 2.85 2.82 2.80 2.83 2.71 2.46 2.44
2.26 2.40 3.39 2.74 3.39 3.05 2.97 3.02 3.27 3.27 3.12 3.19 3.35 3.34 3.04 2.87 3.16 2.50 2.69 3.55 4.13 3.96 3.21 3.26 3.14 3.37 4.03 3.58 3.01 2.94 2.88 2.94 2.97 2.89 2.66 2.66 2.62 2.26
2.56 2.45 2.58 3.35 2.65 2.53 2.76 2.81 3.73 3.74 3.97 3.35 3.13 3.19 2.91 2.56 2.39 2.42 2.32 2.79 3.26 2.96 2.72 3.38 3.14 2.96 3.22 2.74 2.33 2.20 2.12 2.31 2.48 2.58 2.64 2.59 2.45 2.42
2.75 2.81 3.13 3.35 2.64 2.52 2.65 3.34 3.79 3.32 2.73 2.70 2.86 3.10 3.15 3.03 2.80 2.67 2.79 2.83 2.64 2.58 2.63 3.00 2.69 2.14 2.12 2.06 1.79 1.66 1.64 1.57 1.59 1.74 1.96 2.29 2.45 2.45
2.35 2.71 2.85 2.61 2.26 2.29 2.64 2.87 2.81 2.75 3.06 3.39 3.53 3.56 3.45 3.28 3.07 3.04 3.07 3.10 2.83 2.65 2.65 2.42 2.29 2.18 2.18 2.01 1.70 1.53 1.74 1.60 1.34 1.33 1.71 1.76 1.89 2.02
2.19 2.31 2.36 2.45 2.45 2.46 2.50 2.49 2.51 2.69 2.81 2.93 3.02 3.10 3.03 2.90 2.83 2.71 2.63 2.60 2.74 2.68 2.37 2.29 2.20 2.25 2.30 1.99 1.78 1.72 1.50 1.46 1.35 1.26 1.46 1.86 1.99 2.05
2.04 2.27 2.40 2.37 2.24 2.17 2.18 2.14 2.16 2.19 2.23 2.16 2.14 2.16 2.18 2.13 2.07 1.99 2.03 2.02 2.05 1.77 1.89 2.04 1.94 1.77 1.63 1.61 1.73 1.44 1.33 1.28 1.28 1.53 1.48 1.74 1.89 1.83
1.81 1.83 1.81 1.73 1.64 1.56 1.48 1.44 1.45 1.43 1.32 1.23 1.20 1.19 1.26 1.30 1.29 1.29 1.38 1.42 1.38 1.29 1.29 1.41 1.70 1.69 1.60 1.43 1.45 1.21 1.07 0.98 1.02 1.05 1.09 1.46 1.56 1.90
1.36 1.28 1.21 1.13 0.99 0.86 0.78 0.76 0.87 0.80 0.69 0.73 0.74 0.71 0.69 0.74 1.02 0.87 0.87 0.91 1.00 0.96 0.87 0.95 1.12 1.25 1.27 1.06 1.00 0.96 0.96 0.84 0.94 1.03 0.94 1.00 1.23 1.31
0.89 0.76 0.70 0.61 0.56 0.54 0.46 0.45 0.54 0.57 0.55 0.46 0.42 0.44 0.50 0.55 0.62 0.62 0.62 0.67 0.71 0.80 0.84 0.76 0.76 0.83 1.08 1.22 1.14 0.67 0.89 1.06 0.82 0.77 0.75 0.79 0.89 1.20
0.60 0.56 0.53 0.50 0.53 0.50 0.48 0.47 0.56 0.59 0.58 0.56 0.49 0.54 0.58 0.62 0.59 0.55 0.60 0.71 0.79 0.72 0.66 0.56 0.57 0.87 0.88 1.06 1.16 0.76 0.70 0.93 0.67 0.66 0.73 0.91 0.86 0.74
0.58 0.54 0.50 0.49 0.49 0.47 0.47 0.50 0.51 0.58 0.58 0.54 0.43 0.41 0.41 0.42 0.43 0.38 0.40 0.47 0.45 0.42 0.40 0.51 0.76 0.92 0.88 0.75 0.81 0.73 0.72 0.92 0.92 0.73 0.69 0.87 0.99 1.05
0.54 0.49 0.47 0.47 0.45 0.43 0.42 0.44 0.40 0.40 0.42 0.47 0.38 0.40 0.47 0.46 0.40 0.41 0.39 0.38 0.40 0.46 0.50 0.58 0.59 0.69 0.69 0.68 0.88 0.90 0.80 0.90 1.01 1.02 1.00 0.91 0.72 0.62

GFSNE_prec_precacc_270.txt.gz
Total_Precipitation_Accumulation
2.93 3.40 3.91 3.64 2.97 1.88 1.39 1.43 1.76 1.37 0.57 0.28 0.42 0.52 0.61 0.70 0.56 0.66 0.70 0.66 0.64 0.57 0.53 0.51 0.55 0.61 0.74 1.06 1.40 1.62 1.72 2.01 2.07 1.76 2.01 2.54 2.68 2.58
2.68 2.66 2.70 3.08 3.24 3.04 2.60 2.00 2.09 2.13 1.66 0.56 0.47 0.39 0.44 0.49 0.60 0.80 0.78 0.79 0.85 0.92 0.99 0.84 0.63 0.69 0.70 0.67 0.68 0.77 0.90 0.94 1.25 1.31 1.23 1.28 1.84 2.39
3.00 2.81 2.66 2.63 2.89 2.96 2.86 2.58 2.05 2.01 1.83 1.09 0.99 0.95 0.86 0.71 0.73 0.86 0.92 0.94 0.99 1.15 1.37 1.66 1.58 1.28 1.00 0.89 0.75 0.62 0.61 0.70 0.79 0.80 0.77 0.76 0.75 1.20
3.36 3.42 3.56 3.47 3.32 3.00 2.98 3.29 3.00 2.48 2.59 2.43 2.23 2.12 1.74 1.45 1.39 1.32 1.18 1.11 1.15 1.42 1.43 1.53 1.63 1.39 1.32 1.39 1.41 1.41 1.15 1.03 0.97 0.90 0.79 0.66 0.66 0.67
4.46 3.97 3.68 3.76 3.68 3.45 3.12 2.72 2.69 2.91 2.69 2.55 2.38 2.31 2.51 2.20 2.18 2.32 2.30 1.94 1.91 1.81 1.51 1.36 1.43 1.55 1.53 1.57 1.55 1.52 1.45 1.27 1.26 1.45 1.64 1.55 1.12 0.95
5.54 5.13 4.29 4.05 4.03 3.94 3.84 3.55 3.12 2.85 2.66 2.64 2.54 2.50 2.57 2.80 2.64 2.73 3.24 2.90 2.30 1.87 1.76 1.78 1.77 1.57 1.58 1.54 1.60 1.56 1.44 1.45 1.37 1.30 1.33 1.71 2.12 1.99
4.81 4.81 5.09 5.07 4.65 4.22 4.32 4.26 4.19 4.22 4.34 4.21 3.83 3.68 3.34 2.70 2.71 2.68 2.90 2.96 2.92 2.49 2.14 2.05 2.12 2.32 2.33 2.26 2.06 1.93 1.86 1.83 1.73 1.62 1.66 1.77 2.17 2.57
7.16 5.87 5.34 5.68 5.23 5.05 4.85 4.48 4.24 4.42 4.49 4.33 4.41 4.24 3.71 3.43 3.20 3.51 3.76 3.96 3.81 3.12 3.11 3.05 2.70 2.61 2.53 2.52 2.84 2.60 2.32 2.25 2.15 1.95 1.79 1.79 1.99 2.40
6.50 6.60 5.82 5.52 5.19 4.15 4.90 4.67 4.35 4.43 4.41 4.28 4.14 3.95 3.96 3.90 4.14 4.65 4.62 4.47 4.12 3.57 3.58 4.15 3.71 3.42 2.91 2.72 3.12 2.51 2.42 2.42 2.26 2.13 2.11 2.05 2.01 2.07
4.08 4.70 4.94 4.58 4.91 4.78 4.31 4.64 4.62 4.53 4.68 4.90 4.69 4.53 4.53 4.43 4.67 4.63 4.37 4.40 4.48 3.83 3.70 4.20 3.65 3.74 3.46 3.06 3.59 2.81 2.62 2.68 2.92 2.82 2.50 2.33 2.14 2.19
2.75 2.97 3.56 3.53 4.46 4.19 3.59 3.80 4.06 4.22 4.82 4.68 4.22 4.16 3.98 3.56 3.49 4.07 4.90 5.01 4.77 3.87 3.25 3.24 3.16 3.55 3.54 3.28 3.26 3.53 2.95 2.85 2.82 2.80 2.83 2.71 2.46 2.44
2.31 2.47 3.52 2.88 3.56 3.16 3.03 3.07 3.32 3.32 3.15 3.22 3.38 3.38 3.09 2.92 3.22 2.56 2.78 3.63 4.16 3.97 3.22 3.29 3.15 3.38 4.05 3.59 3.01 2.94 2.88 2.94 2.97 2.89 2.66 2.66 2.62 2.26
2.60 2.53 2.70 3.53 2.82 2.69 2.90 2.91 3.86 3.85 4.04 3.40 3.17 3.24 2.97 2.60 2.50 2.54 2.40 2.89 3.36 3.01 2.72 3.40 3.15 2.97 3.22 2.74 2.33 2.20 2.12 2.31 2.48 2.58 2.64 2.59 2.45 2.42
2.81 2.90 3.29 3.56 2.80 2.70 2.82 3.54 3.95 3.45 2.80 2.76 2.91 3.17 3.30 3.16 2.91 2.75 2.87 2.91 2.73 2.67 2.66 3.02 2.70 2.15 2.13 2.06 1.79 1.66 1.64 1.57 1.59 1.74 1.96 2.29 2.45 2.45
2.48 2.81 2.95 2.74 2.40 2.43 2.80 3.03 2.96 2.84 3.14 3.48 3.62 3.64 3.57 3.50 3.29 3.22 3.20 3.21 2.93 2.79 2.80 2.49 2.33 2.18 2.18 2.01 1.70 1.53 1.75 1.60 1.34 1.33 1.71 1.76 1.89 2.02
2.25 2.42 2.47 2.54 2.54 2.56 2.63 2.63 2.65 2.88 3.01 3.08 3.13 3.20 3.12 2.97 2.96 2.95 2.85 2.80 2.96 2.94 2.62 2.48 2.36 2.37 2.33 1.99 1.78 1.72 1.50 1.46 1.35 1.26 1.46 1.86 1.99 2.05
2.05 2.31 2.50 2.47 2.33 2.25 2.25 2.26 2.31 2.35 2.42 2.36 2.31 2.28 2.28 2.22 2.15 2.07 2.18 2.23 2.30 2.05 2.29 2.47 2.31 2.04 1.81 1.72 1.79 1.45 1.33 1.28 1.28 1.53 1.48 1.74 1.89 1.83
1.82 1.85 1.88 1.83 1.76 1.67 1.56 1.51 1.54 1.55 1.44 1.35 1.35 1.33 1.41 1.42 1.39 1.38 1.46 1.51 1.53 1.52 1.58 1.80 2.11 2.08 2.00 1.77 1.80 1.36 1.15 1.04 1.04 1.06 1.10 1.46 1.56 1.90
1.37 1.30 1.25 1.20 1.09 0.96 0.87 0.83 0.95 0.88 0.77 0.81 0.81 0.78 0.77 0.83 1.16 0.97 0.96 1.00 1.09 1.07 1.01 1.15 1.38 1.61 1.67 1.42 1.35 1.33 1.14 1.02 1.07 1.11 1.02 1.07 1.27 1.33
0.90 0.79 0.74 0.66 0.63 0.62 0.55 0.53 0.60 0.62 0.61 0.51 0.47 0.48 0.53 0.58 0.66 0.66 0.67 0.74 0.80 0.92 0.96 0.88 0.90 1.00 1.31 1.50 1.40 0.91 1.21 1.21 0.92 0.88 0.86 0.90 0.99 1.36
0.61 0.58 0.56 0.54 0.57 0.56 0.55 0.52 0.62 0.63 0.62 0.61 0.53 0.59 0.62 0.65 0.61 0.57 0.62 0.72 0.82 0.77 0.74 0.67 0.70 1.05 1.06 1.24 1.36 0.94 0.88 1.16 0.82 0.72 0.78 0.96 0.91 0.79
0.60 0.56 0.53 0.51 0.51 0.50 0.50 0.52 0.54 0.61 0.60 0.57 0.46 0.44 0.45 0.45 0.46 0.40 0.41 0.48 0.46 0.43 0.41 0.52 0.79 0.97 0.96 0.86 0.94 0.89 0.88 1.08 1.12 0.90 0.79 0.94 1.04 1.10
0.56 0.51 0.49 0.49 0.47 0.45 0.44 0.45 0.41 0.42 0.44 0.49 0.40 0.42 0.49 0.48 0.42 0.43 0.40 0.38 0.41 0.46 0.51 0.59 0.59 0.69 0.70 0.69 0.91 0.94 0.86 0.98 1.09 1.11 1.09 1.03 0.82 0.69

GFSNE_prec_precacc_276.txt.gz
Total_Precipitation_Accumulation
2.94 3.42 3.97 3.71 3.12 2.44 2.20 2.00 2.40 1.99 0.86 0.37 0.46 0.56 0.64 0.71 0.56 0.66 0.70 0.66 0.64 0.57 0.53 0.51 0.55 0.61 0.74 1.06 1.40 1.62 1.72 2.01 2.07 1.76 2.01 2.54 2.68 2.58
2.69 2.67 2.72 3.14 3.41 3.34 3.19 2.71 2.65 2.61 1.98 0.68 0.59 0.45 0.46 0.49 0.61 0.81 0.78 0.80 0.85 0.92 0.99 0.84 0.63 0.69 0.70 0.67 0.68 0.77 0.90 0.94 1.25 1.31 1.23 1.28 1.85 2.40
3.01 2.82 2.67 2.67 3.02 3.24 3.28 3.19 2.85 2.67 2.23 1.36 1.15 1.08 0.98 0.82 0.79 0.90 0.96 0.95 0.99 1.15 1.37 1.66 1.58 1.28 1.00 0.89 0.75 0.62 0.61 0.70 0.79 0.80 0.77 0.76 0.75 1.20
3.37 3.43 3.58 3.49 3.37 3.14 3.34 3.68 3.44 3.12 3.12 2.82 2.48 2.23 1.81 1.56 1.45 1.33 1.19 1.11 1.15 1.42 1.43 1.53 1.63 1.39 1.32 1.39 1.41 1.41 1.15 1.03 0.97 0.90 0.79 0.66 0.66 0.67
4.47 3.98 3.69 3.79 3.72 3.49 3.24 3.01 3.02 3.21 3.10 2.91 2.69 2.43 2.59 2.31 2.29 2.37 2.32 1.95 1.91 1.81 1.51 1.36 1.43 1.55 1.53 1.57 1.55 1.52 1.45 1.27 1.26 1.45 1.64 1.55 1.12 0.95
5.55 5.15 4.30 4.07 4.08 4.03 3.93 3.65 3.35 3.19 3.05 3.00 2.83 2.65 2.64 2.91 2.79 2.83 3.28 2.91 2.30 1.87 1.76 1.78 1.77 1.57 1.58 1.54 1.60 1.56 1.44 1.45 1.37 1.30 1.33 1.71 2.12 1.99
4.82 4.83 5.11 5.12 4.69 4.28 4.46 4.41 4.32 4.44 4.66 4.56 4.12 3.92 3.44 2.78 2.84 2.80 2.98 2.97 2.92 2.49 2.14 2.05 2.12 2.32 2.33 2.26 2.06 1.93 1.86 1.83 1.73 1.62 1.66 1.77 2.17 2.57
7.17 5.88 5.36 5.72 5.26 5.08 4.90 4.65 4.44 4.55 4.63 4.53 4.63 4.47 3.87 3.49 3.27 3.66 3.90 4.03 3.82 3.12 3.11 3.05 2.70 2.61 2.53 2.52 2.84 2.60 2.32 2.25 2.15 1.95 1.79 1.79 1.99 2.40
6.51 6.61 5.83 5.53 5.21 4.15 4.91 4.70 4.49 4.66 4.57 4.45 4.30 4.17 4.16 4.05 4.20 4.72 4.83 4.63 4.16 3.57 3.58 4.15 3.71 3.42 2.91 2.72 3.12 2.51 2.42 2.42 2.26 2.13 2.11 2.05 2.01 2.07
4.08 4.70 4.95 4.58 4.92 4.79 4.31 4.64 4.63 4.65 4.84 5.02 4.83 4.70 4.75 4.67 4.85 4.71 4.43 4.70 4.78 3.91 3.75 4.22 3.65 3.74 3.46 3.06 3.59 2.81 2.62 2.68 2.92 2.82 2.50 2.33 2.14 2.19
2.76 2.97 3.57 3.53 4.49 4.21 3.59 3.80 4.06 4.24 4.91 4.83 4.31 4.27 4.26 3.90 3.93 4.32 5.04 5.10 5.00 4.13 3.42 3.35 3.17 3.55 3.55 3.28 3.26 3.53 2.95 2.85 2.82 2.80 2.83 2.71 2.46 2.44
2.31 2.47 3.55 2.90 3.59 3.18 3.04 3.07 3.32 3.32 3.15 3.25 3.41 3.39 3.14 3.07 3.55 2.99 3.03 3.79 4.27 4.06 3.36 3.48 3.21 3.40 4.06 3.59 3.01 2.94 2.88 2.94 2.97 2.89 2.66 2.66 2.62 2.26
2.61 2.54 2.72 3.55 2.86 2.73 2.93 2.93 3.88 3.86 4.04 3.40 3.18 3.25 2.97 2.61 2.54 2.66 2.63 3.16 3.55 3.15 2.79 3.50 3.25 3.04 3.26 2.75 2.33 2.20 2.12 2.31 2.48 2.58 2.64 2.59 2.45 2.42
2.84 2.93 3.31 3.57 2.82 2.73 2.87 3.58 3.97 3.47 2.81 2.76 2.91 3.18 3.30 3.17 2.91 2.76 2.90 3.01 2.91 2.84 2.81 3.22 2.79 2.18 2.17 2.09 1.80 1.66 1.64 1.57 1.59 1.74 1.96 2.29 2.45 2.45
2.48 2.81 2.95 2.75 2.42 2.46 2.84 3.07 2.99 2.86 3.15 3.49 3.63 3.65 3.58 3.51 3.29 3.22 3.20 3.22 2.97 2.87 2.92 2.66 2.53 2.34 2.27 2.03 1.71 1.53 1.75 1.60 1.34 1.33 1.71 1.76 1.89 2.02
2.25 2.42 2.47 2.54 2.55 2.57 2.65 2.66 2.67 2.91 3.06 3.15 3.21 3.25 3.13 2.98 2.97 2.95 2.85 2.80 2.97 2.97 2.67 2.54 2.48 2.53 2.52 2.14 1.88 1.75 1.50 1.46 1.35 1.26 1.46 1.86 1.99 2.05
2.05 2.31 2.50 2.47 2.34 2.26 2.26 2.28 2.33 2.37 2.46 2.41 2.37 2.35 2.34 2.27 2.18 2.09 2.19 2.23 2.31 2.08 2.33 2.51 2.36 2.10 1.92 1.85 1.94 1.62 1.44 1.32 1.29 1.54 1.48 1.74 1.89 1.83
1.82 1.86 1.88 1.84 1.78 1.70 1.59 1.54 1.57 1.58 1.48 1.40 1.41 1.41 1.49 1.51 1.48 1.44 1.51 1.55 1.56 1.56 1.61 1.83 2.14 2.13 2.08 1.89 1.95 1.48 1.28 1.18 1.17 1.13 1.13 1.47 1.56 1.90
1.37 1.31 1.26 1.22 1.12 1.00 0.91 0.88 1.00 0.93 0.81 0.85 0.87 0.87 0.87 0.93 1.26 1.07 1.04 1.08 1.17 1.15 1.07 1.19 1.42 1.64 1.73 1.54 1.50 1.51 1.28 1.14 1.21 1.24 1.17 1.21 1.36 1.37
0.90 0.81 0.76 0.67 0.65 0.66 0.59 0.59 0.65 0.66 0.64 0.55 0.52 0.54 0.60 0.67 0.75 0.76 0.77 0.84 0.90 1.00 1.03 0.94 0.95 1.06 1.38 1.58 1.50 1.03 1.38 1.33 1.04 1.03 1.02 1.04 1.14 1.57
0.61 0.59 0.58 0.54 0.58 0.59 0.58 0.56 0.69 0.69 0.68 0.65 0.57 0.63 0.67 0.71 0.68 0.63 0.68 0.79 0.89 0.84 0.81 0.74 0.78 1.17 1.12 1.30 1.43 1.02 0.96 1.30 0.92 0.81 0.89 1.07 1.03 0.90
0.61 0.57 0.54 0.51 0.51 0.52 0.51 0.53 0.55 0.62 0.63 0.61 0.50 0.48 0.49 0.50 0.53 0.47 0.47 0.53 0.50 0.46 0.45 0.56 0.82 1.01 1.01 0.92 1.01 0.94 0.92 1.11 1.20 0.98 0.86 0.99 1.08 1.14
0.58 0.52 0.51 0.49 0.47 0.46 0.45 0.45 0.41 0.42 0.44 0.52 0.44 0.46 0.53 0.52 0.46 0.47 0.46 0.44 0.46 0.49 0.52 0.59 0.59 0.70 0.71 0.71 0.94 0.97 0.88 1.00 1.10 1.12 1.10 1.05 0.84 0.71

GFSNE_prec_precacc_279.txt.gz
Total_Precipitation_Accumulation
2.94 3.43 3.97 3.71 3.13 2.46 2.26 2.17 2.66 2.19 0.94 0.38 0.48 0.60 0.74 0.78 0.61 0.74 0.72 0.70 0.65 0.57 0.53 0.51 0.55 0.61 0.74 1.06 1.40 1.62 1.72 2.01 2.07 1.76 2.01 2.55 2.69 2.58
2.70 2.67 2.73 3.14 3.41 3.36 3.23 2.78 2.81 2.78 2.08 0.70 0.60 0.48 0.53 0.58 0.69 0.88 0.80 0.82 0.87 0.92 0.99 0.84 0.63 0.69 0.70 0.67 0.68 0.77 0.90 0.94 1.25 1.31 1.23 1.28 1.85 2.40
3.01 2.83 2.68 2.67 3.03 3.24 3.30 3.23 2.91 2.77 2.31 1.40 1.18 1.13 1.06 0.93 0.86 0.96 1.06 1.02 1.02 1.16 1.37 1.66 1.58 1.28 1.00 0.89 0.75 0.62 0.61 0.70 0.79 0.80 0.77 0.76 0.75 1.20
3.38 3.43 3.58 3.50 3.37 3.14 3.34 3.70 3.48 3.18 3.19 2.84 2.50 2.33 1.96 1.66 1.58 1.43 1.27 1.19 1.18 1.42 1.43 1.53 1.63 1.39 1.32 1.39 1.41 1.41 1.15 1.03 0.97 0.90 0.79 0.66 0.66 0.67
4.48 3.99 3.70 3.80 3.73 3.49 3.24 3.02 3.04 3.23 3.14 2.93 2.71 2.51 2.76 2.47 2.45 2.53 2.39 2.00 1.97 1.85 1.54 1.37 1.43 1.55 1.54 1.57 1.55 1.52 1.45 1.27 1.26 1.45 1.64 1.55 1.12 0.95
5.56 5.16 4.31 4.08 4.09 4.03 3.94 3.66 3.36 3.22 3.08 3.02 2.85 2.71 2.71 3.05 2.98 3.05 3.40 2.94 2.33 1.91 1.81 1.80 1.78 1.57 1.58 1.54 1.60 1.56 1.44 1.45 1.37 1.30 1.33 1.71 2.12 1.99
4.82 4.83 5.12 5.13 4.71 4.30 4.47 4.42 4.33 4.45 4.68 4.59 4.15 3.99 3.48 2.84 2.96 2.95 3.11 3.02 2.93 2.50 2.16 2.08 2.14 2.33 2.33 2.27 2.07 1.93 1.86 1.83 1.73 1.62 1.66 1.77 2.17 2.57
7.17 5.88 5.37 5.73 5.27 5.09 4.91 4.66 4.45 4.57 4.68 4.58 4.66 4.53 3.95 3.52 3.30 3.71 3.99 4.20 3.88 3.12 3.11 3.06 2.72 2.62 2.53 2.52 2.84 2.61 2.32 2.25 2.15 1.95 1.79 1.79 1.99 2.40
6.51 6.61 5.83 5.54 5.22 4.15 4.91 4.71 4.50 4.68 4.60 4.53 4.35 4.20 4.23 4.14 4.26 4.77 4.88 4.71 4.30 3.60 3.58 4.15 3.71 3.42 2.91 2.72 3.12 2.51 2.42 2.42 2.26 2.13 2.11 2.05 2.01 2.07
4.09 4.71 4.95 4.59 4.93 4.79 4.31 4.64 4.64 4.65 4.85 5.03 4.84 4.75 4.80 4.80 5.01 4.80 4.48 4.74 4.82 4.00 3.80 4.23 3.65 3.74 3.46 3.06 3.59 2.81 2.62 2.68 2.92 2.82 2.50 2.33 2.14 2.19
2.76 2.97 3.57 3.54 4.49 4.21 3.59 3.80 4.07 4.25 4.93 4.85 4.35 4.35 4.38 4.02 4.14 4.52 5.14 5.15 5.03 4.17 3.52 3.43 3.18 3.55 3.55 3.28 3.26 3.53 2.95 2.85 2.82 2.80 2.83 2.71 2.46 2.44
2.31 2.47 3.55 2.91 3.59 3.19 3.05 3.08 3.33 3.33 3.18 3.27 3.45 3.47 3.24 3.22 3.76 3.35 3.34 3.97 4.34 4.09 3.41 3.53 3.24 3.40 4.06 3.59 3.01 2.94 2.88 2.94 2.97 2.89 2.66 2.66 2.62 2.26
2.61 2.55 2.72 3.56 2.86 2.74 2.93 2.94 3.89 3.86 4.05 3.45 3.22 3.28 3.04 2.74 2.74 2.90 2.97 3.50 3.75 3.22 2.82 3.54 3.28 3.06 3.29 2.75 2.33 2.20 2.12 2.31 2.48 2.58 2.64 2.59 2.45 2.42
2.85 2.93 3.31 3.57 2.82 2.73 2.87 3.58 3.98 3.47 2.81 2.77 2.94 3.22 3.35 3.23 3.02 2.91 3.08 3.25 3.17 3.03 2.96 3.34 2.84 2.20 2.21 2.12 1.80 1.66 1.64 1.57 1.59 1.74 1.96 2.29 2.45 2.45
2.48 2.81 2.95 2.75 2.42 2.46 2.84 3.07 2.99 2.86 3.15 3.49 3.64 3.67 3.60 3.53 3.33 3.28 3.26 3.28 3.11 3.05 3.09 2.89 2.72 2.44 2.34 2.08 1.75 1.55 1.76 1.60 1.34 1.33 1.71 1.76 1.89 2.02
2.25 2.42 2.47 2.54 2.55 2.57 2.65 2.66 2.67 2.91 3.06 3.16 3.22 3.25 3.14 2.98 2.97 2.96 2.87 2.81 2.99 3.03 2.76 2.65 2.63 2.66 2.61 2.19 1.91 1.77 1.51 1.46 1.35 1.26 1.46 1.86 1.99 2.05
2.05 2.31 2.50 2.47 2.34 2.26 2.26 2.28 2.33 2.37 2.46 2.41 2.37 2.35 2.34 2.27 2.18 2.09 2.19 2.24 2.31 2.08 2.34 2.52 2.38 2.17 2.01 1.91 1.98 1.64 1.46 1.33 1.30 1.54 1.48 1.74 1.89 1.83
1.82 1.86 1.89 1.84 1.78 1.70 1.59 1.54 1.57 1.58 1.49 1.41 1.41 1.41 1.50 1.52 1.49 1.45 1.51 1.56 1.57 1.56 1.61 1.83 2.14 2.13 2.10 1.94 2.02 1.53 1.31 1.21 1.19 1.14 1.14 1.47 1.56 1.90
1.37 1.31 1.27 1.23 1.13 1.00 0.91 0.88 1.00 0.94 0.82 0.86 0.87 0.87 0.87 0.94 1.26 1.08 1.06 1.09 1.18 1.16 1.09 1.20 1.42 1.64 1.73 1.54 1.52 1.54 1.31 1.18 1.24 1.26 1.18 1.22 1.37 1.37
0.90 0.82 0.76 0.67 0.65 0.66 0.59 0.59 0.65 0.66 0.64 0.55 0.52 0.54 0.61 0.67 0.76 0.77 0.78 0.87 0.92 1.02 1.05 0.96 0.98 1.08 1.38 1.58 1.50 1.04 1.41 1.34 1.06 1.05 1.04 1.06 1.18 1.63
0.62 0.59 0.58 0.55 0.58 0.59 0.58 0.56 0.69 0.69 0.68 0.65 0.58 0.63 0.68 0.72 0.69 0.65 0.70 0.81 0.92 0.86 0.83 0.77 0.82 1.25 1.15 1.31 1.44 1.04 0.98 1.32 0.93 0.81 0.89 1.08 1.04 0.94
0.61 0.57 0.55 0.51 0.52 0.52 0.51 0.53 0.55 0.62 0.63 0.61 0.50 0.49 0.50 0.51 0.54 0.48 0.49 0.55 0.52 0.49 0.48 0.58 0.83 1.03 1.04 0.95 1.04 0.97 0.94 1.13 1.22 0.99 0.87 1.01 1.10 1.16
0.58 0.52 0.51 0.49 0.47 0.46 0.45 0.45 0.41 0.42 0.45 0.52 0.44 0.46 0.53 0.53 0.47 0.49 0.48 0.46 0.48 0.51 0.55 0.61 0.60 0.70 0.73 0.74 0.96 0.99 0.91 1.02 1.12 1.13 1.10 1.07 0.87 0.76

GFSNE_prec_precacc_282.txt.gz
Total_Precipitation_Accumulation
2.94 3.43 3.98 3.72 3.14 2.48 2.37 2.45 2.97 2.41 1.09 0.42 0.50 0.66 0.84 0.92 0.71 0.86 0.78 0.76 0.66 0.57 0.53 0.51 0.56 0.61 0.74 1.06 1.40 1.62 1.72 2.01 2.07 1.76 2.01 2.55 2.69 2.59
2.70 2.68 2.73 3.15 3.42 3.37 3.25 2.87 3.06 3.00 2.26 0.80 0.64 0.53 0.62 0.63 0.79 0.97 0.85 0.87 0.94 0.93 0.99 0.84 0.64 0.69 0.70 0.67 0.68 0.77 0.90 0.94 1.25 1.31 1.23 1.28 1.85 2.41
3.02 2.83 2.68 2.68 3.03 3.25 3.30 3.24 2.95 2.95 2.45 1.46 1.31 1.24 1.16 1.04 0.92 1.04 1.14 1.12 1.14 1.20 1.37 1.66 1.59 1.28 1.00 0.89 0.75 0.62 0.61 0.70 0.79 0.80 0.77 0.76 0.75 1.20
3.38 3.44 3.59 3.51 3.38 3.15 3.34 3.70 3.48 3.19 3.27 2.93 2.58 2.43 2.02 1.72 1.68 1.53 1.31 1.21 1.21 1.48 1.45 1.54 1.63 1.39 1.32 1.39 1.41 1.41 1.15 1.03 0.97 0.90 0.79 0.66 0.66 0.67
4.48 4.00 3.71 3.81 3.74 3.49 3.25 3.02 3.04 3.24 3.16 2.96 2.74 2.58 2.83 2.51 2.50 2.65 2.52 2.04 1.98 1.88 1.58 1.41 1.47 1.57 1.54 1.57 1.55 1.52 1.45 1.27 1.26 1.45 1.64 1.55 1.12 0.95
5.56 5.16 4.32 4.09 4.10 4.04 3.94 3.66 3.36 3.22 3.09 3.05 2.88 2.74 2.75 3.07 3.00 3.12 3.56 3.07 2.37 1.92 1.83 1.83 1.83 1.62 1.61 1.54 1.61 1.56 1.44 1.45 1.37 1.30 1.33 1.71 2.12 1.99
4.83 4.84 5.13 5.14 4.72 4.31 4.48 4.42 4.33 4.46 4.69 4.63 4.18 4.04 3.51 2.85 2.97 3.00 3.32 3.33 3.06 2.52 2.16 2.09 2.15 2.35 2.34 2.27 2.07 1.94 1.86 1.83 1.73 1.62 1.66 1.77 2.17 2.57
7.18 5.89 5.37 5.74 5.27 5.09 4.92 4.67 4.46 4.57 4.69 4.59 4.70 4.59 3.98 3.52 3.32 3.79 4.12 4.43 4.22 3.23 3.12 3.06 2.73 2.63 2.53 2.52 2.85 2.61 2.32 2.25 2.15 1.95 1.79 1.79 1.99 2.40
6.52 6.62 5.84 5.54 5.22 4.15 4.92 4.73 4.52 4.69 4.61 4.56 4.37 4.25 4.27 4.16 4.28 4.81 4.98 4.82 4.51 4.00 3.79 4.17 3.71 3.42 2.91 2.72 3.12 2.51 2.42 2.43 2.27 2.13 2.11 2.05 2.01 2.07
4.09 4.72 4.96 4.59 4.93 4.79 4.31 4.65 4.65 4.66 4.85 5.04 4.88 4.80 4.85 4.83 5.03 4.83 4.51 4.81 4.94 4.26 4.13 4.36 3.66 3.74 3.46 3.06 3.59 2.81 2.63 2.68 2.93 2.82 2.50 2.33 2.14 2.19
2.76 2.98 3.58 3.55 4.50 4.21 3.59 3.81 4.08 4.26 4.94 4.86 4.37 4.41 4.50 4.10 4.17 4.55 5.20 5.19 5.07 4.23 3.71 3.62 3.22 3.56 3.55 3.28 3.26 3.53 2.96 2.86 2.82 2.81 2.83 2.72 2.46 2.44
2.31 2.48 3.56 2.92 3.59 3.19 3.05 3.08 3.34 3.36 3.20 3.28 3.45 3.48 3.27 3.26 3.80 3.36 3.36 4.03 4.37 4.10 3.47 3.71 3.32 3.41 4.06 3.59 3.01 2.94 2.88 2.95 2.98 2.90 2.66 2.67 2.62 2.26
2.62 2.55 2.72 3.56 2.86 2.74 2.93 2.95 3.92 3.88 4.08 3.46 3.23 3.28 3.04 2.75 2.75 2.92 3.01 3.53 3.80 3.26 2.89 3.66 3.36 3.11 3.32 2.76 2.33 2.20 2.12 2.31 2.48 2.59 2.64 2.59 2.46 2.42
2.85 2.94 3.31 3.57 2.82 2.73 2.87 3.58 3.98 3.48 2.81 2.77 2.96 3.24 3.36 3.24 3.03 2.93 3.12 3.30 3.25 3.13 3.09 3.50 2.97 2.30 2.23 2.14 1.81 1.67 1.64 1.57 1.59 1.74 1.96 2.29 2.45 2.45
2.49 2.81 2.95 2.75 2.42 2.46 2.84 3.07 2.99 2.86 3.16 3.50 3.65 3.71 3.66 3.58 3.35 3.29 3.30 3.33 3.20 3.20 3.28 3.11 2.92 2.67 2.55 2.15 1.77 1.57 1.77 1.61 1.34 1.33 1.71 1.76 1.89 2.02
2.25 2.42 2.47 2.54 2.55 2.57 2.65 2.66 2.67 2.91 3.07 3.16 3.23 3.27 3.15 3.00 3.00 2.98 2.90 2.88 3.07 3.11 2.84 2.75 2.78 2.81 2.79 2.50 2.16 1.86 1.56 1.50 1.36 1.27 1.47 1.86 1.99 2.05
2.05 2.31 2.50 2.48 2.34 2.26 2.26 2.28 2.33 2.37 2.46 2.41 2.37 2.35 2.34 2.27 2.19 2.11 2.22 2.28 2.40 2.18 2.40 2.56 2.43 2.27 2.13 2.02 2.13 1.83 1.59 1.41 1.36 1.58 1.50 1.75 1.90 1.83
1.82 1.86 1.89 1.85 1.78 1.70 1.59 1.54 1.57 1.59 1.49 1.41 1.41 1.41 1.50 1.52 1.49 1.45 1.52 1.57 1.59 1.60 1.65 1.85 2.16 2.15 2.14 2.00 2.11 1.63 1.44 1.30 1.26 1.20 1.18 1.50 1.58 1.91
1.38 1.32 1.27 1.23 1.13 1.00 0.91 0.88 1.00 0.94 0.82 0.86 0.88 0.87 0.87 0.94 1.27 1.08 1.06 1.10 1.19 1.17 1.09 1.21 1.42 1.65 1.75 1.56 1.54 1.57 1.36 1.27 1.33 1.38 1.28 1.28 1.39 1.38
0.90 0.82 0.76 0.67 0.66 0.66 0.59 0.59 0.65 0.66 0.64 0.55 0.52 0.54 0.61 0.68 0.76 0.77 0.79 0.87 0.93 1.03 1.06 0.97 0.98 1.09 1.40 1.60 1.53 1.06 1.44 1.34 1.07 1.10 1.13 1.17 1.27 1.69
0.62 0.60 0.59 0.55 0.58 0.59 0.58 0.56 0.69 0.69 0.68 0.65 0.58 0.64 0.68 0.72 0.69 0.65 0.70 0.81 0.92 0.86 0.84 0.78 0.84 1.28 1.16 1.32 1.46 1.05 1.00 1.35 0.94 0.82 0.90 1.11 1.09 0.98
0.61 0.57 0.55 0.51 0.52 0.52 0.51 0.53 0.55 0.62 0.64 0.61 0.50 0.49 0.50 0.52 0.55 0.49 0.49 0.55 0.52 0.49 0.48 0.58 0.83 1.03 1.05 0.96 1.06 0.99 0.96 1.15 1.24 1.01 0.88 1.02 1.11 1.18
0.58 0.52 0.51 0.49 0.47 0.46 0.46 0.45 0.42 0.42 0.45 0.52 0.44 0.46 0.54 0.53 0.47 0.49 0.48 0.47 0.48 0.52 0.55 0.61 0.60 0.71 0.74 0.75 0.98 1.00 0.93 1.03 1.13 1.15 1.11 1.09 0.89 0.78

GFSNE_prec_precacc_285.txt.gz
Total_Precipitation_Accumulation
2.95 3.44 3.99 3.73 3.17 2.54 2.44 2.53 3.14 2.66 1.27 0.58 0.73 0.95 1.03 1.12 0.80 1.11 0.93 0.80 0.69 0.58 0.54 0.51 0.56 0.61 0.74 1.06 1.40 1.62 1.72 2.01 2.07 1.76 2.01 2.55 2.69 2.59
2.71 2.68 2.74 3.16 3.43 3.39 3.28 2.93 3.14 3.19 2.43 1.00 0.87 0.78 0.95 0.85 1.00 1.35 1.27 0.98 0.99 0.94 0.99 0.84 0.64 0.69 0.70 0.67 0.68 0.77 0.90 0.94 1.25 1.31 1.23 1.28 1.85 2.41
3.02 2.84 2.69 2.69 3.04 3.26 3.31 3.25 3.01 3.04 2.59 1.56 1.45 1.37 1.46 1.27 1.11 1.36 1.76 1.48 1.23 1.25 1.40 1.66 1.59 1.28 1.01 0.89 0.75 0.62 0.61 0.70 0.79 0.80 0.77 0.76 0.75 1.20
3.39 3.44 3.59 3.51 3.38 3.16 3.35 3.71 3.50 3.24 3.39 3.12 2.69 2.56 2.21 2.00 1.82 1.70 1.69 1.75 1.40 1.57 1.50 1.55 1.63 1.39 1.32 1.39 1.41 1.41 1.15 1.03 0.97 0.90 0.79 0.66 0.66 0.67
4.49 4.00 3.71 3.82 3.74 3.50 3.25 3.03 3.05 3.25 3.20 3.14 2.92 2.69 2.98 2.76 2.71 2.89 2.80 2.29 2.25 1.98 1.65 1.45 1.48 1.57 1.54 1.57 1.55 1.52 1.45 1.27 1.26 1.45 1.64 1.55 1.12 0.95
5.57 5.17 4.33 4.10 4.11 4.05 3.94 3.67 3.37 3.23 3.10 3.08 3.03 2.87 2.83 3.19 3.23 3.37 3.75 3.26 2.51 2.03 1.87 1.86 1.84 1.63 1.62 1.55 1.61 1.56 1.44 1.45 1.37 1.30 1.33 1.71 2.12 1.99
4.83 4.84 5.13 5.15 4.72 4.32 4.49 4.43 4.33 4.46 4.69 4.63 4.19 4.15 3.63 2.97 3.07 3.18 3.55 3.49 3.18 2.63 2.21 2.12 2.16 2.36 2.35 2.28 2.08 1.94 1.86 1.83 1.73 1.62 1.66 1.77 2.17 2.57
7.19 5.90 5.37 5.74 5.28 5.09 4.92 4.68 4.47 4.58 4.69 4.59 4.71 4.61 4.08 3.62 3.39 3.85 4.17 4.52 4.32 3.29 3.18 3.11 2.75 2.63 2.53 2.52 2.85 2.61 2.32 2.25 2.15 1.95 1.79 1.79 1.99 2.40
6.53 6.63 5.84 5.55 5.22 4.16 4.92 4.73 4.53 4.70 4.62 4.56 4.38 4.27 4.31 4.23 4.33 4.84 5.00 4.83 4.53 4.05 3.88 4.23 3.74 3.43 2.91 2.72 3.12 2.51 2.42 2.43 2.27 2.13 2.11 2.05 2.01 2.07
4.09 4.73 4.97 4.59 4.94 4.79 4.31 4.66 4.65 4.66 4.86 5.05 4.89 4.83 4.89 4.92 5.10 4.86 4.51 4.81 4.94 4.29 4.23 4.62 3.79 3.75 3.46 3.06 3.59 2.81 2.63 2.69 2.93 2.83 2.51 2.33 2.14 2.19
2.76 2.98 3.59 3.56 4.50 4.22 3.59 3.81 4.09 4.26 4.94 4.87 4.38 4.46 4.56 4.19 4.26 4.59 5.21 5.20 5.09 4.24 3.79 3.79 3.45 3.75 3.58 3.28 3.26 3.53 2.96 2.86 2.83 2.81 2.83 2.72 2.46 2.44
2.32 2.48 3.56 2.92 3.60 3.19 3.05 3.08 3.34 3.37 3.22 3.29 3.45 3.50 3.29 3.28 3.86 3.40 3.39 4.05 4.38 4.12 3.52 3.83 3.42 3.56 4.23 3.64 3.01 2.94 2.88 2.95 2.98 2.90 2.66 2.67 2.63 2.27
2.62 2.55 2.73 3.56 2.86 2.74 2.93 2.95 3.95 3.91 4.10 3.49 3.23 3.29 3.06 2.77 2.77 2.95 3.04 3.56 3.82 3.27 2.95 3.74 3.42 3.21 3.43 2.85 2.36 2.20 2.12 2.31 2.48 2.59 2.64 2.59 2.46 2.42
2.85 2.94 3.32 3.57 2.82 2.73 2.87 3.58 3.98 3.48 2.81 2.79 2.97 3.24 3.36 3.26 3.07 2.97 3.16 3.35 3.28 3.16 3.12 3.57 3.04 2.37 2.31 2.19 1.85 1.68 1.64 1.57 1.59 1.74 1.96 2.30 2.46 2.46
2.49 2.81 2.95 2.75 2.42 2.46 2.84 3.07 2.99 2.87 3.16 3.50 3.66 3.73 3.69 3.59 3.36 3.31 3.32 3.36 3.24 3.23 3.32 3.15 2.98 2.72 2.60 2.20 1.83 1.64 1.82 1.62 1.34 1.33 1.71 1.76 1.89 2.02
2.25 2.42 2.47 2.54 2.55 2.57 2.65 2.66 2.67 2.92 3.07 3.17 3.24 3.28 3.17 3.01 3.01 2.99 2.92 2.89 3.09 3.13 2.87 2.81 2.85 2.88 2.86 2.59 2.25 2.00 1.73 1.61 1.40 1.29 1.48 1.87 1.99 2.06
2.05 2.31 2.50 2.48 2.34 2.26 2.26 2.28 2.33 2.37 2.46 2.42 2.38 2.35 2.34 2.27 2.19 2.12 2.24 2.31 2.42 2.20 2.42 2.58 2.45 2.31 2.16 2.05 2.21 1.95 1.73 1.57 1.52 1.66 1.54 1.78 1.91 1.84
1.82 1.86 1.89 1.85 1.78 1.70 1.59 1.54 1.57 1.59 1.49 1.41 1.41 1.42 1.50 1.52 1.49 1.45 1.53 1.59 1.63 1.63 1.67 1.88 2.19 2.18 2.20 2.07 2.18 1.68 1.53 1.45 1.40 1.33 1.26 1.54 1.61 1.94
1.38 1.32 1.27 1.23 1.13 1.00 0.91 0.88 1.00 0.94 0.82 0.86 0.88 0.87 0.87 0.94 1.27 1.08 1.06 1.10 1.20 1.18 1.11 1.22 1.44 1.69 1.78 1.60 1.61 1.64 1.40 1.34 1.48 1.56 1.38 1.33 1.43 1.43
0.90 0.82 0.76 0.67 0.66 0.66 0.59 0.59 0.65 0.66 0.64 0.55 0.52 0.55 0.61 0.68 0.76 0.77 0.79 0.87 0.93 1.03 1.06 0.97 0.99 1.10 1.44 1.65 1.56 1.10 1.50 1.37 1.09 1.17 1.29 1.35 1.38 1.77
0.62 0.60 0.59 0.55 0.58 0.59 0.58 0.56 0.69 0.69 0.68 0.65 0.58 0.64 0.68 0.73 0.69 0.65 0.71 0.81 0.92 0.87 0.84 0.78 0.84 1.29 1.16 1.33 1.47 1.06 1.01 1.38 0.95 0.83 0.91 1.15 1.19 1.09
0.61 0.57 0.55 0.51 0.52 0.52 0.51 0.53 0.55 0.62 0.64 0.61 0.50 0.49 0.50 0.52 0.55 0.49 0.50 0.56 0.52 0.49 0.48 0.58 0.83 1.03 1.05 0.97 1.06 1.00 0.96 1.15 1.25 1.02 0.88 1.02 1.12 1.20
0.58 0.52 0.51 0.49 0.47 0.46 0.46 0.45 0.42 0.42 0.45 0.52 0.44 0.46 0.54 0.53 0.48 0.50 0.48 0.47 0.48 0.52 0.55 0.61 0.60 0.71 0.74 0.76 0.98 1.00 0.94 1.03 1.13 1.15 1.12 1.10 0.90 0.78

GFSNE_prec_precacc_288.txt.gz
Total_Precipitation_Accumulation
2.96 3.44 3.99 3.74 3.18 2.56 2.47 2.63 3.25 2.75 1.39 0.77 1.23 1.86 1.68 1.40 0.89 1.18 0.98 0.87 0.71 0.58 0.54 0.51 0.56 0.61 0.74 1.06 1.40 1.62 1.72 2.01 2.07 1.76 2.01 2.55 2.70 2.59
2.72 2.69 2.74 3.16 3.44 3.41 3.29 2.96 3.21 3.30 2.57 1.18 1.26 1.32 1.94 1.66 1.32 1.41 1.32 1.03 1.02 0.95 0.99 0.84 0.64 0.69 0.70 0.67 0.68 0.77 0.90 0.94 1.25 1.31 1.23 1.28 1.85 2.41
3.03 2.84 2.69 2.69 3.05 3.27 3.33 3.27 3.04 3.10 2.73 1.74 1.60 1.62 1.80 1.84 1.62 1.54 1.83 1.51 1.25 1.27 1.40 1.66 1.59 1.28 1.01 0.89 0.75 0.62 0.61 0.70 0.79 0.80 0.77 0.76 0.75 1.20
3.40 3.44 3.60 3.51 3.38 3.16 3.36 3.71 3.51 3.26 3.44 3.28 2.81 2.74 2.34 2.31 2.29 2.00 1.83 1.77 1.40 1.58 1.51 1.55 1.63 1.39 1.32 1.39 1.41 1.41 1.15 1.03 0.97 0.90 0.79 0.66 0.66 0.67
4.50 4.01 3.72 3.82 3.75 3.50 3.26 3.03 3.05 3.26 3.21 3.22 3.01 2.80 3.08 3.03 3.28 3.19 3.00 2.41 2.30 2.01 1.68 1.48 1.49 1.58 1.54 1.57 1.55 1.52 1.45 1.27 1.26 1.45 1.64 1.55 1.12 0.95
5.57 5.17 4.33 4.10 4.12 4.06 3.95 3.67 3.38 3.23 3.11 3.12 3.12 2.94 2.93 3.36 3.80 3.94 3.99 3.56 2.66 2.11 1.92 1.88 1.86 1.65 1.63 1.55 1.61 1.56 1.44 1.45 1.37 1.30 1.33 1.71 2.12 1.99
4.84 4.84 5.14 5.16 4.73 4.33 4.50 4.43 4.34 4.47 4.70 4.64 4.28 4.25 3.72 3.06 3.27 3.69 4.05 3.70 3.36 2.77 2.29 2.16 2.18 2.37 2.35 2.29 2.09 1.95 1.86 1.83 1.74 1.62 1.66 1.77 2.17 2.57
7.19 5.90 5.38 5.75 5.28 5.09 4.92 4.68 4.47 4.58 4.69 4.60 4.74 4.67 4.18 3.73 3.52 4.01 4.62 5.07 4.71 3.54 3.33 3.18 2.80 2.64 2.53 2.53 2.85 2.61 2.32 2.25 2.15 1.95 1.79 1.79 1.99 2.40
6.53 6.64 5.84 5.55 5.23 4.16 4.92 4.73 4.53 4.70 4.63 4.57 4.40 4.29 4.34 4.32 4.42 4.95 5.09 5.09 4.92 4.38 4.06 4.37 3.80 3.47 2.92 2.72 3.14 2.51 2.42 2.43 2.27 2.13 2.11 2.05 2.01 2.07
4.10 4.73 4.97 4.60 4.94 4.80 4.31 4.66 4.66 4.67 4.87 5.05 4.90 4.85 4.91 4.93 5.12 4.94 4.61 4.91 5.10 4.50 4.52 4.84 3.92 3.78 3.48 3.06 3.59 2.81 2.63 2.69 2.93 2.83 2.51 2.33 2.14 2.19
2.76 2.98 3.59 3.56 4.51 4.22 3.59 3.81 4.09 4.27 4.95 4.87 4.38 4.48 4.61 4.23 4.29 4.64 5.29 5.27 5.18 4.37 3.88 3.90 3.57 3.82 3.59 3.29 3.26 3.53 2.96 2.86 2.83 2.81 2.83 2.72 2.46 2.44
2.32 2.48 3.56 2.92 3.60 3.19 3.05 3.08 3.34 3.38 3.23 3.29 3.45 3.50 3.30 3.30 3.89 3.43 3.44 4.08 4.42 4.20 3.58 3.86 3.44 3.59 4.26 3.64 3.01 2.94 2.88 2.96 2.99 2.91 2.67 2.67 2.63 2.27
2.62 2.55 2.73 3.56 2.86 2.74 2.94 2.96 3.96 3.91 4.10 3.49 3.24 3.29 3.06 2.78 2.78 2.97 3.08 3.61 3.89 3.32 2.99 3.76 3.42 3.22 3.45 2.87 2.39 2.21 2.13 2.32 2.49 2.60 2.65 2.60 2.47 2.43
2.86 2.94 3.32 3.57 2.82 2.73 2.87 3.58 3.98 3.48 2.81 2.79 2.97 3.25 3.37 3.26 3.08 3.00 3.20 3.40 3.35 3.20 3.16 3.61 3.05 2.39 2.34 2.21 1.88 1.73 1.67 1.58 1.60 1.74 1.96 2.30 2.47 2.47
2.49 2.81 2.95 2.75 2.42 2.46 2.84 3.07 2.99 2.87 3.16 3.51 3.67 3.75 3.72 3.61 3.37 3.34 3.38 3.43 3.30 3.31 3.38 3.20 3.00 2.74 2.63 2.23 1.85 1.68 1.93 1.70 1.37 1.34 1.71 1.76 1.89 2.03
2.25 2.42 2.47 2.54 2.55 2.57 2.65 2.66 2.67 2.92 3.07 3.18 3.25 3.29 3.18 3.02 3.02 3.00 2.94 2.95 3.14 3.18 2.90 2.85 2.88 2.91 2.90 2.65 2.31 2.06 1.84 1.75 1.52 1.34 1.50 1.87 2.00 2.06
2.05 2.31 2.50 2.48 2.34 2.26 2.26 2.28 2.33 2.37 2.46 2.42 2.38 2.35 2.34 2.27 2.19 2.13 2.24 2.31 2.45 2.23 2.45 2.60 2.48 2.34 2.21 2.12 2.29 2.05 1.85 1.74 1.70 1.78 1.60 1.80 1.93 1.86
1.82 1.86 1.89 1.85 1.78 1.70 1.59 1.54 1.57 1.59 1.49 1.41 1.41 1.42 1.50 1.53 1.49 1.45 1.53 1.60 1.64 1.64 1.68 1.89 2.19 2.19 2.23 2.13 2.27 1.74 1.60 1.54 1.50 1.48 1.41 1.63 1.68 2.00
1.38 1.32 1.27 1.23 1.13 1.00 0.91 0.88 1.00 0.94 0.82 0.86 0.88 0.87 0.87 0.94 1.27 1.08 1.06 1.10 1.20 1.19 1.11 1.22 1.46 1.72 1.81 1.63 1.68 1.74 1.47 1.39 1.55 1.64 1.52 1.51 1.58 1.54
0.90 0.82 0.76 0.67 0.66 0.66 0.59 0.59 0.65 0.66 0.64 0.55 0.52 0.55 0.61 0.68 0.76 0.78 0.79 0.87 0.93 1.03 1.06 0.97 1.00 1.12 1.48 1.71 1.61 1.14 1.58 1.44 1.15 1.22 1.38 1.47 1.52 1.93
0.62 0.60 0.59 0.55 0.58 0.59 0.58 0.56 0.69 0.69 0.68 0.65 0.58 0.64 0.68 0.73 0.70 0.66 0.71 0.81 0.92 0.87 0.84 0.78 0.85 1.29 1.17 1.34 1.50 1.09 1.02 1.41 1.01 0.89 0.97 1.23 1.32 1.26
0.61 0.57 0.55 0.51 0.52 0.52 0.51 0.53 0.55 0.62 0.64 0.61 0.50 0.49 0.50 0.52 0.55 0.49 0.50 0.56 0.53 0.50 0.48 0.59 0.83 1.04 1.05 0.97 1.07 1.01 0.97 1.15 1.26 1.05 0.93 1.07 1.17 1.29
0.58 0.52 0.51 0.49 0.47 0.46 0.46 0.45 0.42 0.42 0.45 0.52 0.44 0.46 0.54 0.53 0.48 0.50 0.48 0.47 0.48 0.52 0.55 0.61 0.60 0.71 0.74 0.76 0.98 1.01 0.94 1.03 1.13 1.15 1.12 1.11 0.92 0.81